Wetterdaten: Freitag, 28.01.2011
Datum Zeit Temp. Innen Temp. Aussen UV X Diff Temp. Feuchte Inne Feuchte Auss Sonnenschein Luftdruck Regen ab 0,1 Wind Sonnenschein T Regendauer Windben
28.01.2011 00:00 11,0 C -1,0 C 0,0 UV-I 0,0 C 45 % 80 % 0 % 1022,0 hPa 0,0 l/m 6,4 km/h (2 Bft) 0 min 0 min 7,4 km/h (2 Bft)
28.01.2011 00:02 10,9 C -0,9 C 0,0 UV-I 0,0 C 45 % 80 % 0 % 1022,0 hPa 0,0 l/m 6,4 km/h (2 Bft) 0 min 0 min 6,1 km/h (2 Bft)
28.01.2011 00:04 10,9 C -0,9 C 0,0 UV-I 0,0 C 45 % 80 % 0 % 1022,0 hPa 0,0 l/m 6,4 km/h (2 Bft) 0 min 0 min 6,1 km/h (2 Bft)
28.01.2011 00:06 10,9 C -0,9 C 0,0 UV-I 0,0 C 45 % 80 % 0 % 1022,2 hPa 0,0 l/m 6,4 km/h (2 Bft) 0 min 0 min 5,8 km/h (2 Bft)
28.01.2011 00:08 11,0 C -0,9 C 0,0 UV-I 0,0 C 45 % 80 % 0 % 1022,2 hPa 0,0 l/m 6,0 km/h (2 Bft) 0 min 0 min 4,8 km/h (1 Bft)
28.01.2011 00:10 11,0 C -0,9 C 0,0 UV-I 0,0 C 45 % 80 % 0 % 1022,2 hPa 0,0 l/m 6,0 km/h (2 Bft) 0 min 0 min 3,2 km/h (1 Bft)
28.01.2011 00:12 11,0 C -0,9 C 0,0 UV-I 0,0 C 45 % 80 % 0 % 1022,2 hPa 0,0 l/m 5,6 km/h (1 Bft) 0 min 0 min 6,8 km/h (2 Bft)
28.01.2011 00:14 11,0 C -0,9 C 0,0 UV-I 0,0 C 45 % 80 % 0 % 1022,2 hPa 0,0 l/m 5,6 km/h (1 Bft) 0 min 0 min 5,5 km/h (1 Bft)
28.01.2011 00:16 11,0 C -0,9 C 0,0 UV-I 0,0 C 45 % 80 % 0 % 1022,2 hPa 0,0 l/m 5,2 km/h (1 Bft) 0 min 0 min 7,4 km/h (2 Bft)
28.01.2011 00:18 11,0 C -0,9 C 0,0 UV-I 0,0 C 44 % 80 % 0 % 1022,2 hPa 0,0 l/m 5,2 km/h (1 Bft) 0 min 0 min 6,8 km/h (2 Bft)
28.01.2011 00:20 11,0 C -0,9 C 0,0 UV-I 0,0 C 45 % 80 % 0 % 1022,2 hPa 0,0 l/m 5,6 km/h (1 Bft) 0 min 0 min 7,7 km/h (2 Bft)
28.01.2011 00:22 11,0 C -0,9 C 0,0 UV-I 0,0 C 45 % 80 % 0 % 1022,2 hPa 0,0 l/m 5,6 km/h (1 Bft) 0 min 0 min 0,0 km/h (0 Bft)
28.01.2011 00:24 11,0 C -1,1 C 0,0 UV-I 0,0 C 44 % 80 % 0 % 1022,2 hPa 0,0 l/m 5,6 km/h (1 Bft) 0 min 0 min 6,8 km/h (2 Bft)
28.01.2011 00:26 11,0 C -1,1 C 0,0 UV-I 0,0 C 45 % 80 % 0 % 1022,2 hPa 0,0 l/m 5,2 km/h (1 Bft) 0 min 0 min 6,4 km/h (2 Bft)
28.01.2011 00:28 11,0 C -1,1 C 0,0 UV-I 0,0 C 45 % 80 % 0 % 1022,2 hPa 0,0 l/m 5,2 km/h (1 Bft) 0 min 0 min 5,1 km/h (1 Bft)
28.01.2011 00:30 11,0 C -1,1 C 0,0 UV-I 0,0 C 45 % 80 % 0 % 1022,2 hPa 0,0 l/m 4,4 km/h (1 Bft) 0 min 0 min 4,5 km/h (1 Bft)
28.01.2011 00:32 11,0 C -1,2 C 0,0 UV-I 0,0 C 45 % 80 % 0 % 1022,2 hPa 0,0 l/m 4,4 km/h (1 Bft) 0 min 0 min 4,2 km/h (1 Bft)
28.01.2011 00:34 11,0 C -1,2 C 0,0 UV-I 0,0 C 45 % 80 % 0 % 1022,2 hPa 0,0 l/m 4,8 km/h (1 Bft) 0 min 0 min 5,1 km/h (1 Bft)
28.01.2011 00:36 11,0 C -1,1 C 0,0 UV-I 0,0 C 45 % 80 % 0 % 1022,2 hPa 0,0 l/m 4,4 km/h (1 Bft) 0 min 0 min 6,1 km/h (2 Bft)
28.01.2011 00:38 11,0 C -1,2 C 0,0 UV-I 0,0 C 45 % 80 % 0 % 1022,2 hPa 0,0 l/m 4,4 km/h (1 Bft) 0 min 0 min 7,4 km/h (2 Bft)
28.01.2011 00:40 11,0 C -1,3 C 0,0 UV-I 0,0 C 45 % 80 % 0 % 1022,2 hPa 0,0 l/m 4,8 km/h (1 Bft) 0 min 0 min 5,1 km/h (1 Bft)
28.01.2011 00:42 11,0 C -1,3 C 0,0 UV-I 0,0 C 45 % 80 % 0 % 1022,2 hPa 0,0 l/m 4,4 km/h (1 Bft) 0 min 0 min 3,9 km/h (1 Bft)
28.01.2011 00:44 11,0 C -1,3 C 0,0 UV-I 0,0 C 45 % 80 % 0 % 1022,2 hPa 0,0 l/m 4,4 km/h (1 Bft) 0 min 0 min 10,3 km/h (2 Bft)
28.01.2011 00:46 11,0 C -1,3 C 0,0 UV-I 0,0 C 45 % 80 % 0 % 1022,2 hPa 0,0 l/m 4,8 km/h (1 Bft) 0 min 0 min 5,5 km/h (1 Bft)
28.01.2011 00:48 11,0 C -1,3 C 0,0 UV-I 0,0 C 45 % 80 % 0 % 1022,2 hPa 0,0 l/m 4,8 km/h (1 Bft) 0 min 0 min 0,0 km/h (0 Bft)
28.01.2011 00:50 11,0 C -1,3 C 0,0 UV-I 0,0 C 45 % 80 % 0 % 1022,2 hPa 0,0 l/m 4,0 km/h (1 Bft) 0 min 0 min 3,5 km/h (1 Bft)
28.01.2011 00:52 11,0 C -1,3 C 0,0 UV-I 0,0 C 45 % 81 % 0 % 1022,2 hPa 0,0 l/m 3,6 km/h (1 Bft) 0 min 0 min 4,2 km/h (1 Bft)
28.01.2011 00:54 11,0 C -1,3 C 0,0 UV-I 0,0 C 45 % 81 % 0 % 1022,2 hPa 0,0 l/m 4,4 km/h (1 Bft) 0 min 0 min 5,1 km/h (1 Bft)
28.01.2011 00:56 11,0 C -1,3 C 0,0 UV-I 0,0 C 45 % 81 % 0 % 1022,2 hPa 0,0 l/m 3,6 km/h (1 Bft) 0 min 0 min 3,5 km/h (1 Bft)
28.01.2011 00:58 11,0 C -1,3 C 0,0 UV-I 0,0 C 45 % 81 % 0 % 1022,2 hPa 0,0 l/m 2,8 km/h (1 Bft) 0 min 0 min 4,2 km/h (1 Bft)
28.01.2011 01:00 10,8 C -1,4 C 0,0 UV-I 0,0 C 45 % 81 % 0 % 1022,2 hPa 0,0 l/m 3,6 km/h (1 Bft) 0 min 0 min 6,8 km/h (2 Bft)
28.01.2011 01:02 10,8 C -1,3 C 0,0 UV-I 0,0 C 45 % 81 % 0 % 1022,2 hPa 0,0 l/m 3,6 km/h (1 Bft) 0 min 0 min 3,9 km/h (1 Bft)
28.01.2011 01:04 10,8 C -1,3 C 0,0 UV-I 0,0 C 45 % 81 % 0 % 1022,2 hPa 0,0 l/m 3,6 km/h (1 Bft) 0 min 0 min 3,5 km/h (1 Bft)
28.01.2011 01:06 11,0 C -1,3 C 0,0 UV-I 0,0 C 45 % 80 % 0 % 1022,3 hPa 0,0 l/m 4,0 km/h (1 Bft) 0 min 0 min 5,8 km/h (2 Bft)
28.01.2011 01:08 11,0 C -1,3 C 0,0 UV-I 0,0 C 45 % 81 % 0 % 1022,3 hPa 0,0 l/m 4,8 km/h (1 Bft) 0 min 0 min 5,1 km/h (1 Bft)
28.01.2011 01:10 10,8 C -1,3 C 0,0 UV-I 0,0 C 45 % 80 % 0 % 1022,3 hPa 0,0 l/m 4,4 km/h (1 Bft) 0 min 0 min 0,0 km/h (0 Bft)
28.01.2011 01:12 10,8 C -1,3 C 0,0 UV-I 0,0 C 45 % 80 % 0 % 1022,3 hPa 0,0 l/m 4,0 km/h (1 Bft) 0 min 0 min 4,2 km/h (1 Bft)
28.01.2011 01:14 10,8 C -1,3 C 0,0 UV-I 0,0 C 45 % 80 % 0 % 1022,3 hPa 0,0 l/m 4,0 km/h (1 Bft) 0 min 0 min 0,0 km/h (0 Bft)
28.01.2011 01:16 11,0 C -1,5 C 0,0 UV-I 0,0 C 45 % 80 % 0 % 1022,3 hPa 0,0 l/m 4,0 km/h (1 Bft) 0 min 0 min 7,4 km/h (2 Bft)
28.01.2011 01:18 10,8 C -1,5 C 0,0 UV-I 0,0 C 45 % 80 % 0 % 1022,3 hPa 0,0 l/m 3,2 km/h (1 Bft) 0 min 0 min 4,8 km/h (1 Bft)
28.01.2011 01:20 10,8 C -1,5 C 0,0 UV-I 0,0 C 45 % 80 % 0 % 1022,3 hPa 0,0 l/m 3,2 km/h (1 Bft) 0 min 0 min 5,8 km/h (2 Bft)
28.01.2011 01:22 10,8 C -1,5 C 0,0 UV-I 0,0 C 45 % 80 % 0 % 1022,3 hPa 0,0 l/m 3,6 km/h (1 Bft) 0 min 0 min 4,5 km/h (1 Bft)
28.01.2011 01:24 10,8 C -1,5 C 0,0 UV-I 0,0 C 45 % 80 % 0 % 1022,3 hPa 0,0 l/m 3,6 km/h (1 Bft) 0 min 0 min 3,9 km/h (1 Bft)
28.01.2011 01:26 10,8 C -1,5 C 0,0 UV-I 0,0 C 45 % 80 % 0 % 1022,4 hPa 0,0 l/m 3,6 km/h (1 Bft) 0 min 0 min 0,0 km/h (0 Bft)
28.01.2011 01:28 10,8 C -1,5 C 0,0 UV-I 0,0 C 45 % 80 % 0 % 1022,4 hPa 0,0 l/m 3,6 km/h (1 Bft) 0 min 0 min 3,9 km/h (1 Bft)
28.01.2011 01:30 10,8 C -1,5 C 0,0 UV-I 0,0 C 45 % 80 % 0 % 1022,4 hPa 0,0 l/m 4,0 km/h (1 Bft) 0 min 0 min 5,1 km/h (1 Bft)
28.01.2011 01:32 10,8 C -1,6 C 0,0 UV-I 0,0 C 45 % 80 % 0 % 1022,4 hPa 0,0 l/m 4,4 km/h (1 Bft) 0 min 0 min 5,5 km/h (1 Bft)
28.01.2011 01:34 10,8 C -1,5 C 0,0 UV-I 0,0 C 45 % 80 % 0 % 1022,4 hPa 0,0 l/m 4,4 km/h (1 Bft) 0 min 0 min 10,6 km/h (2 Bft)
28.01.2011 01:36 10,8 C -1,6 C 0,0 UV-I 0,0 C 45 % 80 % 0 % 1022,4 hPa 0,0 l/m 4,0 km/h (1 Bft) 0 min 0 min 4,2 km/h (1 Bft)
28.01.2011 01:38 10,8 C -1,6 C 0,0 UV-I 0,0 C 45 % 80 % 0 % 1022,4 hPa 0,0 l/m 4,4 km/h (1 Bft) 0 min 0 min 4,8 km/h (1 Bft)
28.01.2011 01:40 10,9 C -1,6 C 0,0 UV-I 0,0 C 45 % 80 % 0 % 1022,4 hPa 0,0 l/m 3,6 km/h (1 Bft) 0 min 0 min 0,0 km/h (0 Bft)
28.01.2011 01:42 10,9 C -1,6 C 0,0 UV-I 0,0 C 45 % 80 % 0 % 1022,4 hPa 0,0 l/m 2,8 km/h (1 Bft) 0 min 0 min 0,0 km/h (0 Bft)
28.01.2011 01:44 10,9 C -1,5 C 0,0 UV-I 0,0 C 45 % 80 % 0 % 1022,4 hPa 0,0 l/m 2,0 km/h (1 Bft) 0 min 0 min 0,0 km/h (0 Bft)
28.01.2011 01:46 10,9 C -1,7 C 0,0 UV-I 0,0 C 45 % 80 % 0 % 1022,5 hPa 0,0 l/m 2,0 km/h (1 Bft) 0 min 0 min 5,5 km/h (1 Bft)
28.01.2011 01:48 10,8 C -1,7 C 0,0 UV-I 0,0 C 45 % 80 % 0 % 1022,5 hPa 0,0 l/m 2,0 km/h (1 Bft) 0 min 0 min 0,0 km/h (0 Bft)
28.01.2011 01:50 10,8 C -1,7 C 0,0 UV-I 0,0 C 45 % 80 % 0 % 1022,5 hPa 0,0 l/m 1,6 km/h (1 Bft) 0 min 0 min 5,5 km/h (1 Bft)
28.01.2011 01:52 10,9 C -1,7 C 0,0 UV-I 0,0 C 45 % 80 % 0 % 1022,5 hPa 0,0 l/m 2,0 km/h (1 Bft) 0 min 0 min 0,0 km/h (0 Bft)
28.01.2011 01:54 10,9 C -1,7 C 0,0 UV-I 0,0 C 45 % 80 % 0 % 1022,5 hPa 0,0 l/m 2,4 km/h (1 Bft) 0 min 0 min 4,5 km/h (1 Bft)
28.01.2011 01:56 10,8 C -1,7 C 0,0 UV-I 0,0 C 45 % 80 % 0 % 1022,5 hPa 0,0 l/m 2,4 km/h (1 Bft) 0 min 0 min 5,1 km/h (1 Bft)
28.01.2011 01:58 10,8 C -1,7 C 0,0 UV-I 0,0 C 45 % 80 % 0 % 1022,5 hPa 0,0 l/m 2,0 km/h (1 Bft) 0 min 0 min 0,0 km/h (0 Bft)
28.01.2011 02:00 10,8 C -1,7 C 0,0 UV-I 0,0 C 45 % 80 % 0 % 1022,5 hPa 0,0 l/m 2,0 km/h (1 Bft) 0 min 0 min 0,0 km/h (0 Bft)
28.01.2011 02:02 10,8 C -1,8 C 0,0 UV-I 0,0 C 45 % 80 % 0 % 1022,5 hPa 0,0 l/m 1,2 km/h (1 Bft) 0 min 0 min 0,0 km/h (0 Bft)
28.01.2011 02:04 10,8 C -1,7 C 0,0 UV-I 0,0 C 45 % 80 % 0 % 1022,5 hPa 0,0 l/m 1,2 km/h (1 Bft) 0 min 0 min 4,5 km/h (1 Bft)
28.01.2011 02:06 10,8 C -1,8 C 0,0 UV-I 0,0 C 45 % 80 % 0 % 1022,5 hPa 0,0 l/m 1,2 km/h (1 Bft) 0 min 0 min 0,0 km/h (0 Bft)
28.01.2011 02:08 10,8 C -1,7 C 0,0 UV-I 0,0 C 45 % 80 % 0 % 1022,5 hPa 0,0 l/m 1,2 km/h (1 Bft) 0 min 0 min 3,2 km/h (1 Bft)
28.01.2011 02:10 10,8 C -1,7 C 0,0 UV-I 0,0 C 45 % 80 % 0 % 1022,5 hPa 0,0 l/m 1,2 km/h (1 Bft) 0 min 0 min 0,0 km/h (0 Bft)
28.01.2011 02:12 10,8 C -1,7 C 0,0 UV-I 0,0 C 45 % 80 % 0 % 1022,5 hPa 0,0 l/m 1,6 km/h (1 Bft) 0 min 0 min 4,2 km/h (1 Bft)
28.01.2011 02:14 10,8 C -1,7 C 0,0 UV-I 0,0 C 45 % 80 % 0 % 1022,5 hPa 0,0 l/m 2,0 km/h (1 Bft) 0 min 0 min 10,9 km/h (2 Bft)
28.01.2011 02:16 10,8 C -1,7 C 0,0 UV-I 0,0 C 45 % 80 % 0 % 1022,5 hPa 0,0 l/m 2,4 km/h (1 Bft) 0 min 0 min 3,2 km/h (1 Bft)
28.01.2011 02:18 10,8 C -1,7 C 0,0 UV-I 0,0 C 45 % 80 % 0 % 1022,5 hPa 0,0 l/m 2,4 km/h (1 Bft) 0 min 0 min 0,0 km/h (0 Bft)
28.01.2011 02:20 10,8 C -1,7 C 0,0 UV-I 0,0 C 45 % 80 % 0 % 1022,5 hPa 0,0 l/m 2,0 km/h (1 Bft) 0 min 0 min 0,0 km/h (0 Bft)
28.01.2011 02:22 10,8 C -1,7 C 0,0 UV-I 0,0 C 45 % 80 % 0 % 1022,5 hPa 0,0 l/m 1,6 km/h (1 Bft) 0 min 0 min 0,0 km/h (0 Bft)
28.01.2011 02:24 10,8 C -1,9 C 0,0 UV-I 0,0 C 45 % 80 % 0 % 1022,5 hPa 0,0 l/m 1,2 km/h (1 Bft) 0 min 0 min 0,0 km/h (0 Bft)
28.01.2011 02:26 10,8 C -1,9 C 0,0 UV-I 0,0 C 45 % 80 % 0 % 1022,4 hPa 0,0 l/m 0,8 km/h (0 Bft) 0 min 0 min 0,0 km/h (0 Bft)
28.01.2011 02:28 10,8 C -1,9 C 0,0 UV-I 0,0 C 45 % 80 % 0 % 1022,4 hPa 0,0 l/m 0,4 km/h (0 Bft) 0 min 0 min 0,0 km/h (0 Bft)
28.01.2011 02:30 10,8 C -1,9 C 0,0 UV-I 0,0 C 45 % 80 % 0 % 1022,4 hPa 0,0 l/m 0,4 km/h (0 Bft) 0 min 0 min 0,0 km/h (0 Bft)
28.01.2011 02:32 10,8 C -1,9 C 0,0 UV-I 0,0 C 45 % 80 % 0 % 1022,4 hPa 0,0 l/m 0,8 km/h (0 Bft) 0 min 0 min 4,2 km/h (1 Bft)
28.01.2011 02:34 10,8 C -1,9 C 0,0 UV-I 0,0 C 45 % 80 % 0 % 1022,4 hPa 0,0 l/m 0,8 km/h (0 Bft) 0 min 0 min 3,2 km/h (1 Bft)
28.01.2011 02:36 10,8 C -2,0 C 0,0 UV-I 0,0 C 45 % 81 % 0 % 1022,4 hPa 0,0 l/m 0,8 km/h (0 Bft) 0 min 0 min 0,0 km/h (0 Bft)
28.01.2011 02:38 10,8 C -2,0 C 0,0 UV-I 0,0 C 45 % 81 % 0 % 1022,4 hPa 0,0 l/m 0,8 km/h (0 Bft) 0 min 0 min 0,0 km/h (0 Bft)
28.01.2011 02:40 10,8 C -2,0 C 0,0 UV-I 0,0 C 45 % 80 % 0 % 1022,4 hPa 0,0 l/m 0,8 km/h (0 Bft) 0 min 0 min 0,0 km/h (0 Bft)
28.01.2011 02:42 10,8 C -2,0 C 0,0 UV-I 0,0 C 45 % 80 % 0 % 1022,4 hPa 0,0 l/m 0,4 km/h (0 Bft) 0 min 0 min 3,2 km/h (1 Bft)
28.01.2011 02:44 10,8 C -1,9 C 0,0 UV-I 0,0 C 45 % 81 % 0 % 1022,4 hPa 0,0 l/m 0,4 km/h (0 Bft) 0 min 0 min 3,2 km/h (1 Bft)
28.01.2011 02:46 10,8 C -2,0 C 0,0 UV-I 0,0 C 45 % 80 % 0 % 1022,4 hPa 0,0 l/m 0,4 km/h (0 Bft) 0 min 0 min 0,0 km/h (0 Bft)
28.01.2011 02:48 10,8 C -2,1 C 0,0 UV-I 0,0 C 45 % 81 % 0 % 1022,4 hPa 0,0 l/m 0,4 km/h (0 Bft) 0 min 0 min 3,5 km/h (1 Bft)
28.01.2011 02:50 10,8 C -2,1 C 0,0 UV-I 0,0 C 45 % 81 % 0 % 1022,4 hPa 0,0 l/m 0,4 km/h (0 Bft) 0 min 0 min 0,0 km/h (0 Bft)
28.01.2011 02:52 10,8 C -2,1 C 0,0 UV-I 0,0 C 45 % 81 % 0 % 1022,4 hPa 0,0 l/m 0,4 km/h (0 Bft) 0 min 0 min 0,0 km/h (0 Bft)
28.01.2011 02:54 10,8 C -2,1 C 0,0 UV-I 0,0 C 45 % 81 % 0 % 1022,4 hPa 0,0 l/m 0,0 km/h (0 Bft) 0 min 0 min 0,0 km/h (0 Bft)
28.01.2011 02:56 10,8 C -2,1 C 0,0 UV-I 0,0 C 45 % 81 % 0 % 1022,4 hPa 0,0 l/m 0,0 km/h (0 Bft) 0 min 0 min 0,0 km/h (0 Bft)
28.01.2011 02:58 10,8 C -2,1 C 0,0 UV-I 0,0 C 45 % 81 % 0 % 1022,4 hPa 0,0 l/m 0,0 km/h (0 Bft) 0 min 0 min 0,0 km/h (0 Bft)
28.01.2011 03:00 10,8 C -2,1 C 0,0 UV-I 0,0 C 45 % 81 % 0 % 1022,4 hPa 0,0 l/m 0,0 km/h (0 Bft) 0 min 0 min 0,0 km/h (0 Bft)
28.01.2011 03:02 10,8 C -2,1 C 0,0 UV-I 0,0 C 45 % 81 % 0 % 1022,4 hPa 0,0 l/m 0,0 km/h (0 Bft) 0 min 0 min 3,5 km/h (1 Bft)
28.01.2011 03:04 10,8 C -2,1 C 0,0 UV-I 0,0 C 45 % 81 % 0 % 1022,4 hPa 0,0 l/m 0,0 km/h (0 Bft) 0 min 0 min 3,5 km/h (1 Bft)
28.01.2011 03:06 10,8 C -2,1 C 0,0 UV-I 0,0 C 45 % 81 % 0 % 1022,6 hPa 0,0 l/m 0,4 km/h (0 Bft) 0 min 0 min 3,5 km/h (1 Bft)
28.01.2011 03:08 10,8 C -2,2 C 0,0 UV-I 0,0 C 45 % 81 % 0 % 1022,6 hPa 0,0 l/m 0,8 km/h (0 Bft) 0 min 0 min 0,0 km/h (0 Bft)
28.01.2011 03:10 10,8 C -2,2 C 0,0 UV-I 0,0 C 45 % 81 % 0 % 1022,6 hPa 0,0 l/m 1,2 km/h (1 Bft) 0 min 0 min 3,9 km/h (1 Bft)
28.01.2011 03:12 10,8 C -2,1 C 0,0 UV-I 0,0 C 45 % 81 % 0 % 1022,6 hPa 0,0 l/m 1,2 km/h (1 Bft) 0 min 0 min 0,0 km/h (0 Bft)
28.01.2011 03:14 10,8 C -2,2 C 0,0 UV-I 0,0 C 45 % 81 % 0 % 1022,6 hPa 0,0 l/m 0,8 km/h (0 Bft) 0 min 0 min 0,0 km/h (0 Bft)
28.01.2011 03:16 10,8 C -2,1 C 0,0 UV-I 0,0 C 45 % 81 % 0 % 1022,6 hPa 0,0 l/m 0,8 km/h (0 Bft) 0 min 0 min 3,5 km/h (1 Bft)
28.01.2011 03:18 10,8 C -2,1 C 0,0 UV-I 0,0 C 45 % 81 % 0 % 1022,6 hPa 0,0 l/m 0,8 km/h (0 Bft) 0 min 0 min 0,0 km/h (0 Bft)
28.01.2011 03:20 10,8 C -2,2 C 0,0 UV-I 0,0 C 45 % 81 % 0 % 1022,6 hPa 0,0 l/m 0,8 km/h (0 Bft) 0 min 0 min 0,0 km/h (0 Bft)
28.01.2011 03:22 10,7 C -2,1 C 0,0 UV-I 0,0 C 45 % 81 % 0 % 1022,6 hPa 0,0 l/m 0,4 km/h (0 Bft) 0 min 0 min 0,0 km/h (0 Bft)
28.01.2011 03:24 10,6 C -2,1 C 0,0 UV-I 0,0 C 45 % 81 % 0 % 1022,6 hPa 0,0 l/m 0,4 km/h (0 Bft) 0 min 0 min 3,2 km/h (1 Bft)
28.01.2011 03:26 10,8 C -2,1 C 0,0 UV-I 0,0 C 45 % 81 % 0 % 1022,2 hPa 0,0 l/m 0,8 km/h (0 Bft) 0 min 0 min 0,0 km/h (0 Bft)
28.01.2011 03:28 10,6 C -2,3 C 0,0 UV-I 0,0 C 45 % 81 % 0 % 1022,2 hPa 0,0 l/m 0,4 km/h (0 Bft) 0 min 0 min 0,0 km/h (0 Bft)
28.01.2011 03:30 10,6 C -2,3 C 0,0 UV-I 0,0 C 45 % 81 % 0 % 1022,2 hPa 0,0 l/m 0,4 km/h (0 Bft) 0 min 0 min 0,0 km/h (0 Bft)
28.01.2011 03:32 10,6 C -2,3 C 0,0 UV-I 0,0 C 45 % 81 % 0 % 1022,2 hPa 0,0 l/m 0,4 km/h (0 Bft) 0 min 0 min 0,0 km/h (0 Bft)
28.01.2011 03:34 10,6 C -2,3 C 0,0 UV-I 0,0 C 45 % 81 % 0 % 1022,2 hPa 0,0 l/m 0,4 km/h (0 Bft) 0 min 0 min 0,0 km/h (0 Bft)
28.01.2011 03:36 10,6 C -2,3 C 0,0 UV-I 0,0 C 45 % 81 % 0 % 1022,2 hPa 0,0 l/m 0,0 km/h (0 Bft) 0 min 0 min 0,0 km/h (0 Bft)
28.01.2011 03:38 10,6 C -2,3 C 0,0 UV-I 0,0 C 45 % 81 % 0 % 1022,2 hPa 0,0 l/m 0,4 km/h (0 Bft) 0 min 0 min 0,0 km/h (0 Bft)
28.01.2011 03:40 10,6 C -2,3 C 0,0 UV-I 0,0 C 45 % 81 % 0 % 1022,2 hPa 0,0 l/m 0,4 km/h (0 Bft) 0 min 0 min 0,0 km/h (0 Bft)
28.01.2011 03:42 10,7 C -2,3 C 0,0 UV-I 0,0 C 45 % 81 % 0 % 1022,2 hPa 0,0 l/m 0,4 km/h (0 Bft) 0 min 0 min 0,0 km/h (0 Bft)
28.01.2011 03:44 10,7 C -2,4 C 0,0 UV-I 0,0 C 45 % 81 % 0 % 1022,2 hPa 0,0 l/m 0,4 km/h (0 Bft) 0 min 0 min 0,0 km/h (0 Bft)
28.01.2011 03:46 10,7 C -2,4 C 0,0 UV-I 0,0 C 45 % 81 % 0 % 1022,2 hPa 0,0 l/m 0,4 km/h (0 Bft) 0 min 0 min 3,2 km/h (1 Bft)
28.01.2011 03:48 10,7 C -2,4 C 0,0 UV-I 0,0 C 45 % 81 % 0 % 1022,2 hPa 0,0 l/m 0,4 km/h (0 Bft) 0 min 0 min 0,0 km/h (0 Bft)
28.01.2011 03:50 10,7 C -2,4 C 0,0 UV-I 0,0 C 45 % 81 % 0 % 1022,2 hPa 0,0 l/m 0,4 km/h (0 Bft) 0 min 0 min 0,0 km/h (0 Bft)
28.01.2011 03:52 10,7 C -2,4 C 0,0 UV-I 0,0 C 45 % 81 % 0 % 1022,2 hPa 0,0 l/m 0,4 km/h (0 Bft) 0 min 0 min 0,0 km/h (0 Bft)
28.01.2011 03:54 10,7 C -2,4 C 0,0 UV-I 0,0 C 45 % 81 % 0 % 1022,2 hPa 0,0 l/m 0,8 km/h (0 Bft) 0 min 0 min 4,2 km/h (1 Bft)
28.01.2011 03:56 10,7 C -2,4 C 0,0 UV-I 0,0 C 45 % 81 % 0 % 1022,2 hPa 0,0 l/m 0,8 km/h (0 Bft) 0 min 0 min 4,2 km/h (1 Bft)
28.01.2011 03:58 10,7 C -2,3 C 0,0 UV-I 0,0 C 45 % 81 % 0 % 1022,2 hPa 0,0 l/m 0,8 km/h (0 Bft) 0 min 0 min 3,5 km/h (1 Bft)
28.01.2011 04:00 10,7 C -2,3 C 0,0 UV-I 0,0 C 45 % 81 % 0 % 1022,2 hPa 0,0 l/m 1,2 km/h (1 Bft) 0 min 0 min 4,5 km/h (1 Bft)
28.01.2011 04:02 10,7 C -2,3 C 0,0 UV-I 0,0 C 45 % 80 % 0 % 1022,2 hPa 0,0 l/m 1,2 km/h (1 Bft) 0 min 0 min 0,0 km/h (0 Bft)
28.01.2011 04:04 10,7 C -2,3 C 0,0 UV-I 0,0 C 45 % 81 % 0 % 1022,2 hPa 0,0 l/m 1,2 km/h (1 Bft) 0 min 0 min 5,5 km/h (1 Bft)
28.01.2011 04:06 10,7 C -2,3 C 0,0 UV-I 0,0 C 45 % 81 % 0 % 1022,4 hPa 0,0 l/m 1,6 km/h (1 Bft) 0 min 0 min 4,5 km/h (1 Bft)
28.01.2011 04:08 10,7 C -2,3 C 0,0 UV-I 0,0 C 45 % 80 % 0 % 1022,4 hPa 0,0 l/m 1,6 km/h (1 Bft) 0 min 0 min 0,0 km/h (0 Bft)
28.01.2011 04:10 10,7 C -2,3 C 0,0 UV-I 0,0 C 45 % 80 % 0 % 1022,4 hPa 0,0 l/m 1,6 km/h (1 Bft) 0 min 0 min 0,0 km/h (0 Bft)
28.01.2011 04:12 10,7 C -2,3 C 0,0 UV-I 0,0 C 45 % 80 % 0 % 1022,4 hPa 0,0 l/m 1,2 km/h (1 Bft) 0 min 0 min 0,0 km/h (0 Bft)
28.01.2011 04:14 10,7 C -2,3 C 0,0 UV-I 0,0 C 45 % 80 % 0 % 1022,4 hPa 0,0 l/m 1,2 km/h (1 Bft) 0 min 0 min 3,2 km/h (1 Bft)
28.01.2011 04:16 10,7 C -2,3 C 0,0 UV-I 0,0 C 45 % 80 % 0 % 1022,4 hPa 0,0 l/m 1,2 km/h (1 Bft) 0 min 0 min 3,2 km/h (1 Bft)
28.01.2011 04:18 10,7 C -2,3 C 0,0 UV-I 0,0 C 45 % 80 % 0 % 1022,4 hPa 0,0 l/m 0,8 km/h (0 Bft) 0 min 0 min 3,9 km/h (1 Bft)
28.01.2011 04:20 10,7 C -2,3 C 0,0 UV-I 0,0 C 45 % 80 % 0 % 1022,4 hPa 0,0 l/m 0,8 km/h (0 Bft) 0 min 0 min 0,0 km/h (0 Bft)
28.01.2011 04:22 10,6 C -2,3 C 0,0 UV-I 0,0 C 45 % 80 % 0 % 1022,4 hPa 0,0 l/m 1,2 km/h (1 Bft) 0 min 0 min 3,9 km/h (1 Bft)
28.01.2011 04:24 10,7 C -2,3 C 0,0 UV-I 0,0 C 45 % 80 % 0 % 1022,4 hPa 0,0 l/m 1,6 km/h (1 Bft) 0 min 0 min 4,5 km/h (1 Bft)
28.01.2011 04:26 10,7 C -2,3 C 0,0 UV-I 0,0 C 45 % 80 % 0 % 1022,5 hPa 0,0 l/m 2,0 km/h (1 Bft) 0 min 0 min 5,5 km/h (1 Bft)
28.01.2011 04:28 10,6 C -2,3 C 0,0 UV-I 0,0 C 45 % 80 % 0 % 1022,5 hPa 0,0 l/m 2,0 km/h (1 Bft) 0 min 0 min 3,9 km/h (1 Bft)
28.01.2011 04:30 10,6 C -2,3 C 0,0 UV-I 0,0 C 45 % 80 % 0 % 1022,5 hPa 0,0 l/m 2,4 km/h (1 Bft) 0 min 0 min 4,5 km/h (1 Bft)
28.01.2011 04:32 10,7 C -2,3 C 0,0 UV-I 0,0 C 45 % 80 % 0 % 1022,5 hPa 0,0 l/m 2,0 km/h (1 Bft) 0 min 0 min 0,0 km/h (0 Bft)
28.01.2011 04:34 10,6 C -2,3 C 0,0 UV-I 0,0 C 45 % 80 % 0 % 1022,5 hPa 0,0 l/m 2,0 km/h (1 Bft) 0 min 0 min 4,8 km/h (1 Bft)
28.01.2011 04:36 10,6 C -2,3 C 0,0 UV-I 0,0 C 45 % 80 % 0 % 1022,5 hPa 0,0 l/m 1,6 km/h (1 Bft) 0 min 0 min 0,0 km/h (0 Bft)
28.01.2011 04:38 10,6 C -2,3 C 0,0 UV-I 0,0 C 44 % 80 % 0 % 1022,5 hPa 0,0 l/m 1,6 km/h (1 Bft) 0 min 0 min 4,2 km/h (1 Bft)
28.01.2011 04:40 10,7 C -2,3 C 0,0 UV-I 0,0 C 44 % 80 % 0 % 1022,5 hPa 0,0 l/m 1,6 km/h (1 Bft) 0 min 0 min 6,1 km/h (2 Bft)
28.01.2011 04:42 10,6 C -2,3 C 0,0 UV-I 0,0 C 44 % 80 % 0 % 1022,5 hPa 0,0 l/m 1,6 km/h (1 Bft) 0 min 0 min 0,0 km/h (0 Bft)
28.01.2011 04:44 10,6 C -2,3 C 0,0 UV-I 0,0 C 44 % 80 % 0 % 1022,5 hPa 0,0 l/m 2,4 km/h (1 Bft) 0 min 0 min 4,5 km/h (1 Bft)
28.01.2011 04:46 10,6 C -2,1 C 0,0 UV-I 0,0 C 44 % 80 % 0 % 1022,4 hPa 0,0 l/m 2,8 km/h (1 Bft) 0 min 0 min 6,8 km/h (2 Bft)
28.01.2011 04:48 10,6 C -2,1 C 0,0 UV-I 0,0 C 44 % 80 % 0 % 1022,4 hPa 0,0 l/m 4,0 km/h (1 Bft) 0 min 0 min 4,2 km/h (1 Bft)
28.01.2011 04:50 10,6 C -2,1 C 0,0 UV-I 0,0 C 44 % 80 % 0 % 1022,4 hPa 0,0 l/m 4,0 km/h (1 Bft) 0 min 0 min 3,9 km/h (1 Bft)
28.01.2011 04:52 10,6 C -2,1 C 0,0 UV-I 0,0 C 44 % 80 % 0 % 1022,4 hPa 0,0 l/m 4,0 km/h (1 Bft) 0 min 0 min 5,8 km/h (2 Bft)
28.01.2011 04:54 10,6 C -2,1 C 0,0 UV-I 0,0 C 44 % 80 % 0 % 1022,4 hPa 0,0 l/m 4,0 km/h (1 Bft) 0 min 0 min 0,0 km/h (0 Bft)
28.01.2011 04:56 10,6 C -2,1 C 0,0 UV-I 0,0 C 44 % 80 % 0 % 1022,4 hPa 0,0 l/m 4,0 km/h (1 Bft) 0 min 0 min 4,8 km/h (1 Bft)
28.01.2011 04:58 10,6 C -2,1 C 0,0 UV-I 0,0 C 44 % 80 % 0 % 1022,4 hPa 0,0 l/m 2,8 km/h (1 Bft) 0 min 0 min 3,2 km/h (1 Bft)
28.01.2011 05:00 10,6 C -2,1 C 0,0 UV-I 0,0 C 44 % 80 % 0 % 1022,4 hPa 0,0 l/m 2,4 km/h (1 Bft) 0 min 0 min 4,8 km/h (1 Bft)
28.01.2011 05:02 10,6 C -2,1 C 0,0 UV-I 0,0 C 44 % 79 % 0 % 1022,4 hPa 0,0 l/m 2,8 km/h (1 Bft) 0 min 0 min 4,5 km/h (1 Bft)
28.01.2011 05:04 10,6 C -2,1 C 0,0 UV-I 0,0 C 44 % 79 % 0 % 1022,4 hPa 0,0 l/m 2,8 km/h (1 Bft) 0 min 0 min 4,8 km/h (1 Bft)
28.01.2011 05:06 10,6 C -2,1 C 0,0 UV-I 0,0 C 44 % 80 % 0 % 1022,9 hPa 0,0 l/m 3,2 km/h (1 Bft) 0 min 0 min 3,9 km/h (1 Bft)
28.01.2011 05:08 10,6 C -2,1 C 0,0 UV-I 0,0 C 44 % 80 % 0 % 1022,9 hPa 0,0 l/m 3,6 km/h (1 Bft) 0 min 0 min 5,1 km/h (1 Bft)
28.01.2011 05:10 10,6 C -2,1 C 0,0 UV-I 0,0 C 44 % 80 % 0 % 1022,9 hPa 0,0 l/m 4,0 km/h (1 Bft) 0 min 0 min 4,2 km/h (1 Bft)
28.01.2011 05:12 10,6 C -2,1 C 0,0 UV-I 0,0 C 44 % 80 % 0 % 1022,9 hPa 0,0 l/m 4,0 km/h (1 Bft) 0 min 0 min 5,5 km/h (1 Bft)
28.01.2011 05:14 10,6 C -2,1 C 0,0 UV-I 0,0 C 44 % 80 % 0 % 1022,9 hPa 0,0 l/m 4,0 km/h (1 Bft) 0 min 0 min 0,0 km/h (0 Bft)
28.01.2011 05:16 10,6 C -2,1 C 0,0 UV-I 0,0 C 44 % 80 % 0 % 1022,9 hPa 0,0 l/m 3,6 km/h (1 Bft) 0 min 0 min 3,5 km/h (1 Bft)
28.01.2011 05:18 10,6 C -2,1 C 0,0 UV-I 0,0 C 44 % 80 % 0 % 1022,9 hPa 0,0 l/m 3,6 km/h (1 Bft) 0 min 0 min 0,0 km/h (0 Bft)
28.01.2011 05:20 10,6 C -2,3 C 0,0 UV-I 0,0 C 44 % 80 % 0 % 1022,9 hPa 0,0 l/m 3,2 km/h (1 Bft) 0 min 0 min 0,0 km/h (0 Bft)
28.01.2011 05:22 10,6 C -2,1 C 0,0 UV-I 0,0 C 44 % 80 % 0 % 1022,9 hPa 0,0 l/m 3,2 km/h (1 Bft) 0 min 0 min 0,0 km/h (0 Bft)
28.01.2011 05:24 10,6 C -2,3 C 0,0 UV-I 0,0 C 44 % 80 % 0 % 1022,9 hPa 0,0 l/m 2,8 km/h (1 Bft) 0 min 0 min 4,5 km/h (1 Bft)
28.01.2011 05:26 10,6 C -2,3 C 0,0 UV-I 0,0 C 44 % 80 % 0 % 1022,7 hPa 0,0 l/m 2,8 km/h (1 Bft) 0 min 0 min 4,5 km/h (1 Bft)
28.01.2011 05:28 10,6 C -2,3 C 0,0 UV-I 0,0 C 44 % 80 % 0 % 1022,7 hPa 0,0 l/m 2,8 km/h (1 Bft) 0 min 0 min 0,0 km/h (0 Bft)
28.01.2011 05:30 10,6 C -2,3 C 0,0 UV-I 0,0 C 44 % 80 % 0 % 1022,7 hPa 0,0 l/m 2,8 km/h (1 Bft) 0 min 0 min 3,5 km/h (1 Bft)
28.01.2011 05:32 10,6 C -2,3 C 0,0 UV-I 0,0 C 44 % 80 % 0 % 1022,7 hPa 0,0 l/m 3,2 km/h (1 Bft) 0 min 0 min 4,5 km/h (1 Bft)
28.01.2011 05:34 10,6 C -2,3 C 0,0 UV-I 0,0 C 44 % 80 % 0 % 1022,7 hPa 0,0 l/m 3,6 km/h (1 Bft) 0 min 0 min 0,0 km/h (0 Bft)
28.01.2011 05:36 10,6 C -2,3 C 0,0 UV-I 0,0 C 44 % 80 % 0 % 1022,7 hPa 0,0 l/m 3,2 km/h (1 Bft) 0 min 0 min 3,5 km/h (1 Bft)
28.01.2011 05:38 10,6 C -2,3 C 0,0 UV-I 0,0 C 44 % 80 % 0 % 1022,7 hPa 0,0 l/m 2,8 km/h (1 Bft) 0 min 0 min 3,5 km/h (1 Bft)
28.01.2011 05:40 10,6 C -2,4 C 0,0 UV-I 0,0 C 44 % 80 % 0 % 1022,7 hPa 0,0 l/m 2,8 km/h (1 Bft) 0 min 0 min 5,1 km/h (1 Bft)
28.01.2011 05:42 10,6 C -2,4 C 0,0 UV-I 0,0 C 44 % 80 % 0 % 1022,7 hPa 0,0 l/m 2,0 km/h (1 Bft) 0 min 0 min 3,2 km/h (1 Bft)
28.01.2011 05:44 10,6 C -2,4 C 0,0 UV-I 0,0 C 44 % 80 % 0 % 1022,7 hPa 0,0 l/m 1,6 km/h (1 Bft) 0 min 0 min 3,5 km/h (1 Bft)
28.01.2011 05:46 10,6 C -2,3 C 0,0 UV-I 0,0 C 44 % 80 % 0 % 1022,7 hPa 0,0 l/m 1,6 km/h (1 Bft) 0 min 0 min 0,0 km/h (0 Bft)
28.01.2011 05:48 10,6 C -2,5 C 0,0 UV-I 0,0 C 44 % 81 % 0 % 1022,7 hPa 0,0 l/m 1,6 km/h (1 Bft) 0 min 0 min 0,0 km/h (0 Bft)
28.01.2011 05:50 10,6 C -2,5 C 0,0 UV-I 0,0 C 44 % 81 % 0 % 1022,7 hPa 0,0 l/m 1,6 km/h (1 Bft) 0 min 0 min 5,1 km/h (1 Bft)
28.01.2011 05:52 10,6 C -2,5 C 0,0 UV-I 0,0 C 44 % 81 % 0 % 1022,7 hPa 0,0 l/m 1,6 km/h (1 Bft) 0 min 0 min 3,2 km/h (1 Bft)
28.01.2011 05:54 10,6 C -2,5 C 0,0 UV-I 0,0 C 44 % 81 % 0 % 1022,7 hPa 0,0 l/m 1,2 km/h (1 Bft) 0 min 0 min 0,0 km/h (0 Bft)
28.01.2011 05:56 10,6 C -2,5 C 0,0 UV-I 0,0 C 44 % 81 % 0 % 1022,7 hPa 0,0 l/m 1,2 km/h (1 Bft) 0 min 0 min 0,0 km/h (0 Bft)
28.01.2011 05:58 10,6 C -2,5 C 0,0 UV-I 0,0 C 44 % 81 % 0 % 1022,7 hPa 0,0 l/m 1,2 km/h (1 Bft) 0 min 0 min 0,0 km/h (0 Bft)
28.01.2011 06:00 10,6 C -2,5 C 0,0 UV-I 0,0 C 44 % 81 % 0 % 1022,7 hPa 0,0 l/m 0,8 km/h (0 Bft) 0 min 0 min 0,0 km/h (0 Bft)
28.01.2011 06:02 10,6 C -2,6 C 0,0 UV-I 0,0 C 44 % 81 % 0 % 1022,7 hPa 0,0 l/m 0,4 km/h (0 Bft) 0 min 0 min 0,0 km/h (0 Bft)
28.01.2011 06:04 10,6 C -2,6 C 0,0 UV-I 0,0 C 44 % 81 % 0 % 1022,7 hPa 0,0 l/m 0,4 km/h (0 Bft) 0 min 0 min 0,0 km/h (0 Bft)
28.01.2011 06:06 10,6 C -2,5 C 0,0 UV-I 0,0 C 44 % 81 % 0 % 1022,7 hPa 0,0 l/m 0,0 km/h (0 Bft) 0 min 0 min 0,0 km/h (0 Bft)
28.01.2011 06:08 10,6 C -2,7 C 0,0 UV-I 0,0 C 44 % 81 % 0 % 1022,7 hPa 0,0 l/m 0,0 km/h (0 Bft) 0 min 0 min 0,0 km/h (0 Bft)
28.01.2011 06:10 10,6 C -2,7 C 0,0 UV-I 0,0 C 44 % 81 % 0 % 1022,7 hPa 0,0 l/m 0,0 km/h (0 Bft) 0 min 0 min 0,0 km/h (0 Bft)
28.01.2011 06:12 10,6 C -2,7 C 0,0 UV-I 0,0 C 44 % 81 % 0 % 1022,7 hPa 0,0 l/m 0,0 km/h (0 Bft) 0 min 0 min 0,0 km/h (0 Bft)
28.01.2011 06:14 10,4 C -2,7 C 0,0 UV-I 0,0 C 44 % 82 % 0 % 1022,7 hPa 0,0 l/m 0,0 km/h (0 Bft) 0 min 0 min 0,0 km/h (0 Bft)
28.01.2011 06:16 10,4 C -2,7 C 0,0 UV-I 0,0 C 44 % 82 % 0 % 1022,7 hPa 0,0 l/m 0,0 km/h (0 Bft) 0 min 0 min 0,0 km/h (0 Bft)
28.01.2011 06:18 10,4 C -2,7 C 0,0 UV-I 0,0 C 44 % 82 % 0 % 1022,7 hPa 0,0 l/m 0,0 km/h (0 Bft) 0 min 0 min 0,0 km/h (0 Bft)
28.01.2011 06:20 10,4 C -2,8 C 0,0 UV-I 0,0 C 44 % 82 % 0 % 1022,7 hPa 0,0 l/m 0,0 km/h (0 Bft) 0 min 0 min 0,0 km/h (0 Bft)
28.01.2011 06:22 10,4 C -2,8 C 0,0 UV-I 0,0 C 44 % 82 % 0 % 1022,7 hPa 0,0 l/m 0,0 km/h (0 Bft) 0 min 0 min 0,0 km/h (0 Bft)
28.01.2011 06:24 10,4 C -2,8 C 0,0 UV-I 0,0 C 44 % 82 % 0 % 1022,7 hPa 0,0 l/m 0,0 km/h (0 Bft) 0 min 0 min 0,0 km/h (0 Bft)
28.01.2011 06:26 10,4 C -2,8 C 0,0 UV-I 0,0 C 44 % 82 % 0 % 1022,7 hPa 0,0 l/m 0,0 km/h (0 Bft) 0 min 0 min 0,0 km/h (0 Bft)
28.01.2011 06:28 10,4 C -2,8 C 0,0 UV-I 0,0 C 44 % 82 % 0 % 1022,7 hPa 0,0 l/m 0,0 km/h (0 Bft) 0 min 0 min 0,0 km/h (0 Bft)
28.01.2011 06:30 10,4 C -2,7 C 0,0 UV-I 0,0 C 44 % 82 % 0 % 1022,7 hPa 0,0 l/m 0,0 km/h (0 Bft) 0 min 0 min 0,0 km/h (0 Bft)
28.01.2011 06:32 10,4 C -2,9 C 0,0 UV-I 0,0 C 44 % 82 % 0 % 1022,7 hPa 0,0 l/m 0,0 km/h (0 Bft) 0 min 0 min 0,0 km/h (0 Bft)
28.01.2011 06:34 10,4 C -2,9 C 0,0 UV-I 0,0 C 44 % 82 % 0 % 1022,7 hPa 0,0 l/m 0,0 km/h (0 Bft) 0 min 0 min 0,0 km/h (0 Bft)
28.01.2011 06:36 10,4 C -2,9 C 0,0 UV-I 0,0 C 44 % 82 % 0 % 1022,7 hPa 0,0 l/m 0,0 km/h (0 Bft) 0 min 0 min 0,0 km/h (0 Bft)
28.01.2011 06:38 10,4 C -2,9 C 0,0 UV-I 0,0 C 44 % 82 % 0 % 1022,7 hPa 0,0 l/m 0,0 km/h (0 Bft) 0 min 0 min 0,0 km/h (0 Bft)
28.01.2011 06:40 10,4 C -2,9 C 0,0 UV-I 0,0 C 44 % 82 % 0 % 1022,7 hPa 0,0 l/m 0,0 km/h (0 Bft) 0 min 0 min 0,0 km/h (0 Bft)
28.01.2011 06:42 10,4 C -2,9 C 0,0 UV-I 0,0 C 44 % 82 % 0 % 1022,7 hPa 0,0 l/m 0,0 km/h (0 Bft) 0 min 0 min 0,0 km/h (0 Bft)
28.01.2011 06:44 10,4 C -2,9 C 0,0 UV-I 0,0 C 44 % 82 % 0 % 1022,7 hPa 0,0 l/m 0,0 km/h (0 Bft) 0 min 0 min 0,0 km/h (0 Bft)
28.01.2011 06:46 10,4 C -2,9 C 0,0 UV-I 0,0 C 44 % 82 % 0 % 1022,7 hPa 0,0 l/m 0,0 km/h (0 Bft) 0 min 0 min 3,5 km/h (1 Bft)
28.01.2011 06:48 10,5 C -2,9 C 0,0 UV-I 0,0 C 44 % 82 % 0 % 1022,7 hPa 0,0 l/m 0,0 km/h (0 Bft) 0 min 0 min 0,0 km/h (0 Bft)
28.01.2011 06:50 10,5 C -3,0 C 0,0 UV-I 0,0 C 44 % 82 % 0 % 1022,7 hPa 0,0 l/m 0,0 km/h (0 Bft) 0 min 0 min 0,0 km/h (0 Bft)
28.01.2011 06:52 10,5 C -3,0 C 0,0 UV-I 0,0 C 44 % 83 % 0 % 1022,7 hPa 0,0 l/m 0,4 km/h (0 Bft) 0 min 0 min 0,0 km/h (0 Bft)
28.01.2011 06:54 10,5 C -2,9 C 0,0 UV-I 0,0 C 44 % 83 % 0 % 1022,7 hPa 0,0 l/m 0,4 km/h (0 Bft) 0 min 0 min 0,0 km/h (0 Bft)
28.01.2011 06:56 10,3 C -3,0 C 0,0 UV-I 0,0 C 44 % 83 % 0 % 1022,7 hPa 0,0 l/m 0,4 km/h (0 Bft) 0 min 0 min 0,0 km/h (0 Bft)
28.01.2011 06:58 10,5 C -3,0 C 0,0 UV-I 0,0 C 44 % 83 % 0 % 1022,7 hPa 0,0 l/m 0,4 km/h (0 Bft) 0 min 0 min 0,0 km/h (0 Bft)
28.01.2011 07:00 10,3 C -2,9 C 0,0 UV-I 0,0 C 44 % 83 % 0 % 1022,7 hPa 0,0 l/m 0,4 km/h (0 Bft) 0 min 0 min 0,0 km/h (0 Bft)
28.01.2011 07:02 10,3 C -2,9 C 0,0 UV-I 0,0 C 44 % 83 % 0 % 1022,7 hPa 0,0 l/m 0,4 km/h (0 Bft) 0 min 0 min 0,0 km/h (0 Bft)
28.01.2011 07:04 10,5 C -2,9 C 0,0 UV-I 0,0 C 44 % 83 % 0 % 1022,7 hPa 0,0 l/m 0,4 km/h (0 Bft) 0 min 0 min 0,0 km/h (0 Bft)
28.01.2011 07:06 10,3 C -2,9 C 0,0 UV-I 0,0 C 44 % 83 % 0 % 1022,7 hPa 0,0 l/m 0,0 km/h (0 Bft) 0 min 0 min 0,0 km/h (0 Bft)
28.01.2011 07:08 10,3 C -2,9 C 0,0 UV-I 0,0 C 44 % 83 % 0 % 1022,7 hPa 0,0 l/m 0,0 km/h (0 Bft) 0 min 0 min 0,0 km/h (0 Bft)
28.01.2011 07:10 10,3 C -2,9 C 0,0 UV-I 0,0 C 44 % 83 % 0 % 1022,7 hPa 0,0 l/m 0,0 km/h (0 Bft) 0 min 0 min 0,0 km/h (0 Bft)
28.01.2011 07:12 10,3 C -3,1 C 0,0 UV-I 0,0 C 44 % 83 % 0 % 1022,7 hPa 0,0 l/m 0,4 km/h (0 Bft) 0 min 0 min 3,9 km/h (1 Bft)
28.01.2011 07:14 10,3 C -3,1 C 0,0 UV-I 0,0 C 44 % 83 % 0 % 1022,7 hPa 0,0 l/m 0,4 km/h (0 Bft) 0 min 0 min 0,0 km/h (0 Bft)
28.01.2011 07:16 10,3 C -2,9 C 0,0 UV-I 0,0 C 44 % 83 % 0 % 1022,7 hPa 0,0 l/m 0,8 km/h (0 Bft) 0 min 0 min 0,0 km/h (0 Bft)
28.01.2011 07:18 10,3 C -2,9 C 0,0 UV-I 0,0 C 44 % 84 % 0 % 1022,7 hPa 0,0 l/m 0,8 km/h (0 Bft) 0 min 0 min 3,2 km/h (1 Bft)
28.01.2011 07:20 10,3 C -3,1 C 0,0 UV-I 0,0 C 44 % 84 % 0 % 1022,7 hPa 0,0 l/m 1,2 km/h (1 Bft) 0 min 0 min 0,0 km/h (0 Bft)
28.01.2011 07:22 10,4 C -3,1 C 0,0 UV-I 0,0 C 44 % 84 % 0 % 1022,7 hPa 0,0 l/m 0,8 km/h (0 Bft) 0 min 0 min 0,0 km/h (0 Bft)
28.01.2011 07:24 10,3 C -3,1 C 0,0 UV-I 0,0 C 44 % 84 % 0 % 1022,7 hPa 0,0 l/m 1,2 km/h (1 Bft) 0 min 0 min 0,0 km/h (0 Bft)
28.01.2011 07:26 10,3 C -3,1 C 0,0 UV-I 0,0 C 44 % 84 % 0 % 1022,7 hPa 0,0 l/m 1,2 km/h (1 Bft) 0 min 0 min 0,0 km/h (0 Bft)
28.01.2011 07:28 10,3 C -3,1 C 0,0 UV-I 0,0 C 44 % 84 % 0 % 1022,7 hPa 0,0 l/m 1,2 km/h (1 Bft) 0 min 0 min 0,0 km/h (0 Bft)
28.01.2011 07:30 10,3 C -2,9 C 0,0 UV-I 0,0 C 44 % 84 % 0 % 1022,7 hPa 0,0 l/m 0,8 km/h (0 Bft) 0 min 0 min 0,0 km/h (0 Bft)
28.01.2011 07:32 10,4 C -2,9 C 0,0 UV-I 0,0 C 44 % 84 % 0 % 1022,7 hPa 0,0 l/m 0,8 km/h (0 Bft) 0 min 0 min 0,0 km/h (0 Bft)
28.01.2011 07:34 10,3 C -2,9 C 0,0 UV-I 0,0 C 44 % 84 % 0 % 1022,7 hPa 0,0 l/m 0,8 km/h (0 Bft) 0 min 0 min 0,0 km/h (0 Bft)
28.01.2011 07:36 10,4 C -3,1 C 0,0 UV-I 0,0 C 44 % 84 % 0 % 1022,7 hPa 0,0 l/m 0,4 km/h (0 Bft) 0 min 0 min 0,0 km/h (0 Bft)
28.01.2011 07:38 10,4 C -3,1 C 0,0 UV-I 0,0 C 44 % 84 % 0 % 1022,7 hPa 0,0 l/m 0,4 km/h (0 Bft) 0 min 0 min 0,0 km/h (0 Bft)
28.01.2011 07:40 10,3 C -3,1 C 0,0 UV-I 0,0 C 44 % 84 % 0 % 1022,7 hPa 0,0 l/m 0,0 km/h (0 Bft) 0 min 0 min 0,0 km/h (0 Bft)
28.01.2011 07:42 10,4 C -3,1 C 0,0 UV-I 0,0 C 44 % 84 % 0 % 1022,7 hPa 0,0 l/m 0,0 km/h (0 Bft) 0 min 0 min 0,0 km/h (0 Bft)
28.01.2011 07:44 10,4 C -3,1 C 0,0 UV-I 0,0 C 45 % 84 % 0 % 1022,7 hPa 0,0 l/m 0,0 km/h (0 Bft) 0 min 0 min 0,0 km/h (0 Bft)
28.01.2011 07:46 10,4 C -3,1 C 0,0 UV-I 0,0 C 44 % 84 % 0 % 1022,7 hPa 0,0 l/m 0,0 km/h (0 Bft) 0 min 0 min 0,0 km/h (0 Bft)
28.01.2011 07:48 10,4 C -3,1 C 0,0 UV-I 0,0 C 44 % 84 % 0 % 1022,7 hPa 0,0 l/m 0,0 km/h (0 Bft) 0 min 0 min 0,0 km/h (0 Bft)
28.01.2011 07:50 10,4 C -3,1 C 0,0 UV-I 0,0 C 44 % 84 % 0 % 1022,7 hPa 0,0 l/m 0,0 km/h (0 Bft) 0 min 0 min 0,0 km/h (0 Bft)
28.01.2011 07:52 10,4 C -3,1 C 0,0 UV-I 0,0 C 44 % 84 % 0 % 1022,7 hPa 0,0 l/m 0,0 km/h (0 Bft) 0 min 0 min 0,0 km/h (0 Bft)
28.01.2011 07:54 10,4 C -3,2 C 0,0 UV-I 0,0 C 44 % 84 % 0 % 1022,7 hPa 0,0 l/m 0,0 km/h (0 Bft) 0 min 0 min 0,0 km/h (0 Bft)
28.01.2011 07:56 10,4 C -3,2 C 0,0 UV-I 0,0 C 44 % 84 % 0 % 1022,7 hPa 0,0 l/m 0,0 km/h (0 Bft) 0 min 0 min 0,0 km/h (0 Bft)
28.01.2011 07:58 10,4 C -3,2 C 0,0 UV-I 0,0 C 45 % 84 % 0 % 1022,7 hPa 0,0 l/m 0,0 km/h (0 Bft) 0 min 0 min 0,0 km/h (0 Bft)
28.01.2011 08:00 10,4 C -3,1 C 0,0 UV-I 0,0 C 44 % 84 % 0 % 1022,7 hPa 0,0 l/m 0,0 km/h (0 Bft) 0 min 0 min 0,0 km/h (0 Bft)
28.01.2011 08:02 10,4 C -3,3 C 0,0 UV-I 0,0 C 44 % 84 % 0 % 1022,7 hPa 0,0 l/m 0,0 km/h (0 Bft) 0 min 0 min 0,0 km/h (0 Bft)
28.01.2011 08:04 10,4 C -3,1 C 0,0 UV-I 0,0 C 44 % 84 % 0 % 1022,7 hPa 0,0 l/m 0,0 km/h (0 Bft) 0 min 0 min 0,0 km/h (0 Bft)
28.01.2011 08:06 10,4 C -3,3 C 0,0 UV-I 0,0 C 44 % 84 % 0 % 1022,7 hPa 0,0 l/m 0,0 km/h (0 Bft) 0 min 0 min 0,0 km/h (0 Bft)
28.01.2011 08:08 10,4 C -3,3 C 0,0 UV-I 0,0 C 45 % 84 % 0 % 1022,7 hPa 0,0 l/m 0,0 km/h (0 Bft) 0 min 0 min 3,2 km/h (1 Bft)
28.01.2011 08:10 10,4 C -3,3 C 0,0 UV-I 0,0 C 44 % 84 % 0 % 1022,7 hPa 0,0 l/m 0,0 km/h (0 Bft) 0 min 0 min 3,9 km/h (1 Bft)
28.01.2011 08:12 10,4 C -3,3 C 0,0 UV-I 0,0 C 45 % 84 % 0 % 1022,7 hPa 0,0 l/m 0,0 km/h (0 Bft) 0 min 0 min 0,0 km/h (0 Bft)
28.01.2011 08:14 10,2 C -3,3 C 0,0 UV-I 0,0 C 45 % 84 % 0 % 1022,7 hPa 0,0 l/m 0,4 km/h (0 Bft) 0 min 0 min 4,2 km/h (1 Bft)
28.01.2011 08:16 10,2 C -3,3 C 0,0 UV-I 0,0 C 45 % 85 % 0 % 1022,7 hPa 0,0 l/m 0,8 km/h (0 Bft) 0 min 0 min 3,5 km/h (1 Bft)
28.01.2011 08:18 10,4 C -3,3 C 0,0 UV-I 0,0 C 45 % 85 % 0 % 1022,7 hPa 0,0 l/m 0,8 km/h (0 Bft) 0 min 0 min 3,5 km/h (1 Bft)
28.01.2011 08:20 10,4 C -3,1 C 0,0 UV-I 0,0 C 45 % 84 % 0 % 1022,7 hPa 0,0 l/m 0,8 km/h (0 Bft) 0 min 0 min 3,2 km/h (1 Bft)
28.01.2011 08:22 10,2 C -3,1 C 0,0 UV-I 0,0 C 45 % 84 % 0 % 1022,7 hPa 0,0 l/m 0,8 km/h (0 Bft) 0 min 0 min 3,9 km/h (1 Bft)
28.01.2011 08:24 10,4 C -3,1 C 0,0 UV-I 0,0 C 45 % 85 % 0 % 1022,7 hPa 0,0 l/m 1,2 km/h (1 Bft) 0 min 0 min 3,2 km/h (1 Bft)
28.01.2011 08:26 10,2 C -3,2 C 0,0 UV-I 0,0 C 45 % 85 % 0 % 1022,7 hPa 0,0 l/m 0,8 km/h (0 Bft) 0 min 0 min 3,5 km/h (1 Bft)
28.01.2011 08:28 10,2 C -3,2 C 0,0 UV-I 0,0 C 45 % 85 % 0 % 1022,7 hPa 0,0 l/m 0,8 km/h (0 Bft) 0 min 0 min 0,0 km/h (0 Bft)
28.01.2011 08:30 10,2 C -3,2 C 0,0 UV-I 0,0 C 45 % 85 % 0 % 1022,7 hPa 0,0 l/m 0,8 km/h (0 Bft) 0 min 0 min 0,0 km/h (0 Bft)
28.01.2011 08:32 10,4 C -3,2 C 0,0 UV-I 0,0 C 45 % 85 % 0 % 1022,7 hPa 0,0 l/m 0,8 km/h (0 Bft) 0 min 0 min 4,5 km/h (1 Bft)
28.01.2011 08:34 10,2 C -3,2 C 0,0 UV-I 0,0 C 45 % 85 % 0 % 1022,7 hPa 0,0 l/m 0,8 km/h (0 Bft) 0 min 0 min 0,0 km/h (0 Bft)
28.01.2011 08:36 10,2 C -3,1 C 0,0 UV-I 0,0 C 45 % 85 % 0 % 1022,7 hPa 0,0 l/m 0,8 km/h (0 Bft) 0 min 0 min 0,0 km/h (0 Bft)
28.01.2011 08:38 10,2 C -3,1 C 0,0 UV-I 0,0 C 45 % 85 % 0 % 1022,7 hPa 0,0 l/m 1,2 km/h (1 Bft) 0 min 0 min 4,2 km/h (1 Bft)
28.01.2011 08:40 10,2 C -3,1 C 0,0 UV-I 0,0 C 45 % 85 % 0 % 1022,7 hPa 0,0 l/m 1,2 km/h (1 Bft) 0 min 0 min 0,0 km/h (0 Bft)
28.01.2011 08:42 10,3 C -3,1 C 0,0 UV-I 0,0 C 45 % 85 % 0 % 1022,7 hPa 0,0 l/m 1,6 km/h (1 Bft) 0 min 0 min 4,2 km/h (1 Bft)
28.01.2011 08:44 10,2 C -3,1 C 0,0 UV-I 0,0 C 45 % 85 % 0 % 1022,7 hPa 0,0 l/m 1,6 km/h (1 Bft) 0 min 0 min 7,7 km/h (2 Bft)
28.01.2011 08:46 10,3 C -3,1 C 0,0 UV-I 0,0 C 45 % 85 % 0 % 1022,7 hPa 0,0 l/m 2,4 km/h (1 Bft) 0 min 0 min 3,9 km/h (1 Bft)
28.01.2011 08:48 10,3 C -3,1 C 0,0 UV-I 0,0 C 45 % 85 % 0 % 1022,7 hPa 0,0 l/m 2,4 km/h (1 Bft) 0 min 0 min 3,2 km/h (1 Bft)
28.01.2011 08:50 10,3 C -2,9 C 0,0 UV-I 0,0 C 45 % 85 % 0 % 1022,7 hPa 0,0 l/m 2,4 km/h (1 Bft) 0 min 0 min 0,0 km/h (0 Bft)
28.01.2011 08:52 10,2 C -2,9 C 0,0 UV-I 0,0 C 45 % 84 % 0 % 1022,7 hPa 0,0 l/m 2,4 km/h (1 Bft) 0 min 0 min 0,0 km/h (0 Bft)
28.01.2011 08:54 10,2 C -3,0 C 0,0 UV-I 0,0 C 45 % 85 % 0 % 1022,7 hPa 0,0 l/m 2,4 km/h (1 Bft) 0 min 0 min 3,2 km/h (1 Bft)
28.01.2011 08:56 10,3 C -2,9 C 0,0 UV-I 0,0 C 45 % 85 % 0 % 1022,7 hPa 0,0 l/m 1,6 km/h (1 Bft) 0 min 0 min 0,0 km/h (0 Bft)
28.01.2011 08:58 10,2 C -3,0 C 0,0 UV-I 0,0 C 45 % 85 % 0 % 1022,7 hPa 0,0 l/m 1,6 km/h (1 Bft) 0 min 0 min 6,4 km/h (2 Bft)
28.01.2011 09:00 10,3 C -2,9 C 0,0 UV-I 0,0 C 45 % 84 % 0 % 1022,7 hPa 0,0 l/m 1,6 km/h (1 Bft) 0 min 0 min 5,1 km/h (1 Bft)
28.01.2011 09:02 10,2 C -2,9 C 0,0 UV-I 0,0 C 45 % 84 % 0 % 1022,7 hPa 0,0 l/m 1,6 km/h (1 Bft) 0 min 0 min 0,0 km/h (0 Bft)
28.01.2011 09:04 10,3 C -2,9 C 0,0 UV-I 0,0 C 45 % 84 % 0 % 1022,7 hPa 0,0 l/m 1,2 km/h (1 Bft) 0 min 0 min 0,0 km/h (0 Bft)
28.01.2011 09:06 10,2 C -2,9 C 0,0 UV-I 0,0 C 45 % 84 % 0 % 1022,7 hPa 0,0 l/m 2,0 km/h (1 Bft) 0 min 0 min 5,8 km/h (2 Bft)
28.01.2011 09:08 10,3 C -2,7 C 0,0 UV-I 0,0 C 45 % 85 % 0 % 1022,7 hPa 0,0 l/m 2,0 km/h (1 Bft) 0 min 0 min 3,5 km/h (1 Bft)
28.01.2011 09:10 10,2 C -2,8 C 0,0 UV-I 0,0 C 45 % 84 % 0 % 1022,7 hPa 0,0 l/m 2,4 km/h (1 Bft) 0 min 0 min 5,1 km/h (1 Bft)
28.01.2011 09:12 10,2 C -2,8 C 0,0 UV-I 0,0 C 45 % 84 % 0 % 1022,7 hPa 0,0 l/m 2,0 km/h (1 Bft) 0 min 0 min 0,0 km/h (0 Bft)
28.01.2011 09:14 10,3 C -2,8 C 0,0 UV-I 0,0 C 45 % 84 % 0 % 1022,7 hPa 0,0 l/m 2,0 km/h (1 Bft) 0 min 0 min 7,4 km/h (2 Bft)
28.01.2011 09:16 10,2 C -2,7 C 0,0 UV-I 0,0 C 45 % 85 % 0 % 1022,7 hPa 0,0 l/m 2,8 km/h (1 Bft) 0 min 0 min 7,4 km/h (2 Bft)
28.01.2011 09:18 10,2 C -2,7 C 0,0 UV-I 0,0 C 45 % 84 % 0 % 1022,7 hPa 0,0 l/m 2,8 km/h (1 Bft) 0 min 0 min 4,5 km/h (1 Bft)
28.01.2011 09:20 10,2 C -2,7 C 0,0 UV-I 0,0 C 45 % 84 % 0 % 1022,7 hPa 0,0 l/m 2,8 km/h (1 Bft) 0 min 0 min 6,4 km/h (2 Bft)
28.01.2011 09:22 10,2 C -2,5 C 0,0 UV-I 0,0 C 45 % 84 % 0 % 1022,7 hPa 0,0 l/m 3,2 km/h (1 Bft) 0 min 0 min 4,2 km/h (1 Bft)
28.01.2011 09:24 10,3 C -2,5 C 0,0 UV-I 0,0 C 45 % 84 % 0 % 1022,7 hPa 0,0 l/m 4,4 km/h (1 Bft) 0 min 0 min 6,1 km/h (2 Bft)
28.01.2011 09:26 10,2 C -2,5 C 0,0 UV-I 0,0 C 45 % 84 % 0 % 1022,7 hPa 0,0 l/m 4,4 km/h (1 Bft) 0 min 0 min 4,5 km/h (1 Bft)
28.01.2011 09:28 10,4 C -2,5 C 0,0 UV-I 0,0 C 45 % 84 % 0 % 1022,7 hPa 0,0 l/m 4,4 km/h (1 Bft) 0 min 0 min 3,5 km/h (1 Bft)
28.01.2011 09:30 10,2 C -2,5 C 0,0 UV-I 0,0 C 45 % 84 % 0 % 1022,7 hPa 0,0 l/m 4,8 km/h (1 Bft) 0 min 0 min 7,1 km/h (2 Bft)
28.01.2011 09:32 10,4 C -2,5 C 0,0 UV-I 0,0 C 45 % 84 % 0 % 1022,7 hPa 0,0 l/m 4,8 km/h (1 Bft) 0 min 0 min 3,2 km/h (1 Bft)
28.01.2011 09:34 10,4 C -2,4 C 0,0 UV-I 0,0 C 45 % 84 % 0 % 1022,7 hPa 0,0 l/m 4,4 km/h (1 Bft) 0 min 0 min 7,1 km/h (2 Bft)
28.01.2011 09:36 10,4 C -2,3 C 0,0 UV-I 0,0 C 45 % 83 % 0 % 1022,7 hPa 0,0 l/m 3,6 km/h (1 Bft) 0 min 0 min 3,9 km/h (1 Bft)
28.01.2011 09:38 10,4 C -2,3 C 0,0 UV-I 0,0 C 45 % 83 % 0 % 1022,7 hPa 0,0 l/m 3,6 km/h (1 Bft) 0 min 0 min 7,4 km/h (2 Bft)
28.01.2011 09:40 10,4 C -2,3 C 0,0 UV-I 0,0 C 44 % 83 % 0 % 1022,7 hPa 0,0 l/m 4,0 km/h (1 Bft) 0 min 0 min 4,2 km/h (1 Bft)
28.01.2011 09:42 10,4 C -2,3 C 0,0 UV-I 0,0 C 44 % 83 % 0 % 1022,7 hPa 0,0 l/m 3,2 km/h (1 Bft) 0 min 0 min 5,8 km/h (2 Bft)
28.01.2011 09:44 10,4 C -2,1 C 0,0 UV-I 0,0 C 44 % 83 % 0 % 1022,7 hPa 0,0 l/m 3,2 km/h (1 Bft) 0 min 0 min 0,0 km/h (0 Bft)
28.01.2011 09:46 10,4 C -2,2 C 0,0 UV-I 0,0 C 44 % 83 % 0 % 1023,2 hPa 0,0 l/m 2,8 km/h (1 Bft) 0 min 0 min 4,8 km/h (1 Bft)
28.01.2011 09:48 10,4 C -2,1 C 0,0 UV-I 0,0 C 44 % 83 % 0 % 1023,2 hPa 0,0 l/m 3,2 km/h (1 Bft) 0 min 0 min 5,1 km/h (1 Bft)
28.01.2011 09:50 10,4 C -2,1 C 0,0 UV-I 0,0 C 44 % 83 % 0 % 1023,2 hPa 0,0 l/m 3,2 km/h (1 Bft) 0 min 0 min 4,5 km/h (1 Bft)
28.01.2011 09:52 10,4 C -2,1 C 0,0 UV-I 0,0 C 44 % 83 % 0 % 1023,2 hPa 0,0 l/m 3,6 km/h (1 Bft) 0 min 0 min 3,5 km/h (1 Bft)
28.01.2011 09:54 10,4 C -2,0 C 0,0 UV-I 0,0 C 44 % 83 % 0 % 1023,2 hPa 0,0 l/m 4,0 km/h (1 Bft) 0 min 0 min 5,1 km/h (1 Bft)
28.01.2011 09:56 10,4 C -2,0 C 0,0 UV-I 0,5 C 45 % 83 % 14 % 1023,2 hPa 0,0 l/m 4,0 km/h (1 Bft) 0 min 0 min 0,0 km/h (0 Bft)
28.01.2011 09:58 10,4 C -1,9 C 0,0 UV-I 1,5 C 44 % 83 % 43 % 1023,2 hPa 0,0 l/m 4,0 km/h (1 Bft) 0 min 0 min 10,6 km/h (2 Bft)
28.01.2011 10:00 10,4 C -1,9 C 0,0 UV-I 2,0 C 44 % 83 % 57 % 1023,2 hPa 0,0 l/m 4,0 km/h (1 Bft) 2 min 0 min 5,1 km/h (1 Bft)
28.01.2011 10:02 10,4 C -1,7 C 0,0 UV-I 2,7 C 45 % 82 % 77 % 1023,2 hPa 0,0 l/m 4,4 km/h (1 Bft) 2 min 0 min 7,1 km/h (2 Bft)
28.01.2011 10:04 10,4 C -1,8 C 0,0 UV-I 3,2 C 44 % 82 % 91 % 1023,2 hPa 0,0 l/m 4,8 km/h (1 Bft) 2 min 0 min 13,8 km/h (3 Bft)
28.01.2011 10:06 10,4 C -1,7 C 0,0 UV-I 3,6 C 44 % 82 % 100 % 1023,2 hPa 0,0 l/m 4,8 km/h (1 Bft) 2 min 0 min 5,8 km/h (2 Bft)
28.01.2011 10:08 10,4 C -1,7 C 0,0 UV-I 4,1 C 44 % 82 % 100 % 1023,2 hPa 0,0 l/m 5,2 km/h (1 Bft) 2 min 0 min 5,1 km/h (1 Bft)
28.01.2011 10:10 10,4 C -1,7 C 0,0 UV-I 4,4 C 44 % 82 % 100 % 1023,2 hPa 0,0 l/m 4,8 km/h (1 Bft) 2 min 0 min 5,1 km/h (1 Bft)
28.01.2011 10:12 10,4 C -1,7 C 0,0 UV-I 4,7 C 44 % 81 % 100 % 1023,2 hPa 0,0 l/m 4,8 km/h (1 Bft) 2 min 0 min 6,1 km/h (2 Bft)
28.01.2011 10:14 10,4 C -1,6 C 0,0 UV-I 4,8 C 44 % 81 % 100 % 1023,2 hPa 0,0 l/m 4,8 km/h (1 Bft) 2 min 0 min 5,5 km/h (1 Bft)
28.01.2011 10:16 10,3 C -1,5 C 0,0 UV-I 4,9 C 44 % 81 % 100 % 1023,2 hPa 0,0 l/m 4,8 km/h (1 Bft) 2 min 0 min 3,9 km/h (1 Bft)
28.01.2011 10:18 10,4 C -1,3 C 0,0 UV-I 5,0 C 44 % 81 % 100 % 1023,2 hPa 0,0 l/m 5,2 km/h (1 Bft) 2 min 0 min 4,5 km/h (1 Bft)
28.01.2011 10:20 10,3 C -1,3 C 0,0 UV-I 5,1 C 44 % 81 % 100 % 1023,2 hPa 0,0 l/m 6,0 km/h (2 Bft) 2 min 0 min 7,7 km/h (2 Bft)
28.01.2011 10:22 10,3 C -1,4 C 0,0 UV-I 5,3 C 44 % 81 % 100 % 1023,2 hPa 0,0 l/m 5,6 km/h (1 Bft) 2 min 0 min 6,4 km/h (2 Bft)
28.01.2011 10:24 10,3 C -1,3 C 0,0 UV-I 5,4 C 44 % 81 % 100 % 1023,2 hPa 0,0 l/m 6,4 km/h (2 Bft) 2 min 0 min 7,4 km/h (2 Bft)
28.01.2011 10:26 10,3 C -1,3 C 0,0 UV-I 5,5 C 44 % 81 % 100 % 1023,2 hPa 0,0 l/m 6,4 km/h (2 Bft) 2 min 0 min 5,5 km/h (1 Bft)
28.01.2011 10:28 10,3 C -1,2 C 0,0 UV-I 5,6 C 44 % 80 % 100 % 1023,2 hPa 0,0 l/m 6,4 km/h (2 Bft) 2 min 0 min 8,0 km/h (2 Bft)
28.01.2011 10:30 10,3 C -1,2 C 0,0 UV-I 5,6 C 44 % 80 % 100 % 1023,2 hPa 0,0 l/m 6,8 km/h (2 Bft) 2 min 0 min 12,9 km/h (3 Bft)
28.01.2011 10:32 10,3 C -1,2 C 0,0 UV-I 5,6 C 44 % 79 % 100 % 1023,2 hPa 0,0 l/m 6,8 km/h (2 Bft) 2 min 0 min 9,0 km/h (2 Bft)
28.01.2011 10:34 10,3 C -1,2 C 0,0 UV-I 5,7 C 44 % 80 % 100 % 1023,2 hPa 0,0 l/m 6,0 km/h (2 Bft) 2 min 0 min 4,2 km/h (1 Bft)
28.01.2011 10:36 10,3 C -1,1 C 0,0 UV-I 5,8 C 44 % 80 % 100 % 1023,2 hPa 0,0 l/m 6,0 km/h (2 Bft) 2 min 0 min 5,8 km/h (2 Bft)
28.01.2011 10:38 10,3 C -1,1 C 0,0 UV-I 5,8 C 44 % 80 % 100 % 1023,2 hPa 0,0 l/m 5,6 km/h (1 Bft) 2 min 0 min 4,2 km/h (1 Bft)
28.01.2011 10:40 10,3 C -0,9 C 0,0 UV-I 5,8 C 44 % 79 % 100 % 1023,2 hPa 0,0 l/m 6,0 km/h (2 Bft) 2 min 0 min 6,4 km/h (2 Bft)
28.01.2011 10:42 10,3 C -0,9 C 0,0 UV-I 5,9 C 44 % 79 % 100 % 1023,2 hPa 0,0 l/m 6,0 km/h (2 Bft) 2 min 0 min 7,7 km/h (2 Bft)
28.01.2011 10:44 10,5 C -0,9 C 0,0 UV-I 6,0 C 44 % 79 % 100 % 1023,2 hPa 0,0 l/m 5,6 km/h (1 Bft) 2 min 0 min 7,1 km/h (2 Bft)
28.01.2011 10:46 10,3 C -0,9 C 0,0 UV-I 6,1 C 44 % 79 % 100 % 1023,0 hPa 0,0 l/m 6,0 km/h (2 Bft) 2 min 0 min 6,8 km/h (2 Bft)
28.01.2011 10:48 10,5 C -0,9 C 0,0 UV-I 6,2 C 44 % 79 % 100 % 1023,0 hPa 0,0 l/m 6,4 km/h (2 Bft) 2 min 0 min 6,4 km/h (2 Bft)
28.01.2011 10:50 10,3 C -0,8 C 0,0 UV-I 6,2 C 44 % 78 % 100 % 1023,0 hPa 0,0 l/m 6,0 km/h (2 Bft) 2 min 0 min 4,8 km/h (1 Bft)
28.01.2011 10:52 10,5 C -0,7 C 0,0 UV-I 6,2 C 44 % 78 % 100 % 1023,0 hPa 0,0 l/m 6,0 km/h (2 Bft) 2 min 0 min 7,4 km/h (2 Bft)
28.01.2011 10:54 10,4 C -0,7 C 0,0 UV-I 6,3 C 44 % 78 % 100 % 1023,0 hPa 0,0 l/m 6,8 km/h (2 Bft) 2 min 0 min 16,1 km/h (3 Bft)
28.01.2011 10:56 10,4 C -0,7 C 0,0 UV-I 6,2 C 44 % 78 % 100 % 1023,0 hPa 0,0 l/m 6,4 km/h (2 Bft) 2 min 0 min 4,8 km/h (1 Bft)
28.01.2011 10:58 10,4 C -0,7 C 0,0 UV-I 6,4 C 44 % 78 % 100 % 1023,0 hPa 0,0 l/m 6,4 km/h (2 Bft) 2 min 0 min 5,8 km/h (2 Bft)
28.01.2011 11:00 10,4 C -0,5 C 0,0 UV-I 6,1 C 44 % 79 % 100 % 1023,0 hPa 0,0 l/m 5,6 km/h (1 Bft) 2 min 0 min 0,0 km/h (0 Bft)
28.01.2011 11:02 10,4 C -0,5 C 0,0 UV-I 6,4 C 44 % 78 % 100 % 1023,0 hPa 0,0 l/m 5,2 km/h (1 Bft) 2 min 0 min 0,0 km/h (0 Bft)
28.01.2011 11:04 10,4 C -0,5 C 0,0 UV-I 6,7 C 44 % 78 % 100 % 1023,0 hPa 0,0 l/m 5,2 km/h (1 Bft) 2 min 0 min 11,9 km/h (2 Bft)
28.01.2011 11:06 10,4 C -0,3 C 0,2 UV-I 6,4 C 44 % 78 % 100 % 1023,0 hPa 0,0 l/m 4,4 km/h (1 Bft) 2 min 0 min 4,5 km/h (1 Bft)
28.01.2011 11:08 10,4 C -0,3 C 0,2 UV-I 6,5 C 44 % 78 % 100 % 1023,0 hPa 0,0 l/m 4,0 km/h (1 Bft) 2 min 0 min 3,2 km/h (1 Bft)
28.01.2011 11:10 10,6 C -0,3 C 0,3 UV-I 6,7 C 44 % 78 % 100 % 1023,0 hPa 0,0 l/m 3,6 km/h (1 Bft) 2 min 0 min 3,2 km/h (1 Bft)
28.01.2011 11:12 10,6 C -0,1 C 0,3 UV-I 6,6 C 44 % 77 % 100 % 1023,0 hPa 0,0 l/m 4,8 km/h (1 Bft) 2 min 0 min 8,0 km/h (2 Bft)
28.01.2011 11:14 10,6 C -0,2 C 0,3 UV-I 6,5 C 44 % 77 % 100 % 1023,0 hPa 0,0 l/m 5,6 km/h (1 Bft) 2 min 0 min 7,7 km/h (2 Bft)
28.01.2011 11:16 10,6 C -0,2 C 0,5 UV-I 6,5 C 44 % 76 % 100 % 1023,0 hPa 0,0 l/m 5,2 km/h (1 Bft) 2 min 0 min 12,2 km/h (2 Bft)
28.01.2011 11:18 10,6 C -0,2 C 0,5 UV-I 6,6 C 44 % 76 % 100 % 1023,0 hPa 0,0 l/m 6,4 km/h (2 Bft) 2 min 0 min 5,1 km/h (1 Bft)
28.01.2011 11:20 10,6 C -0,1 C 0,6 UV-I 6,6 C 44 % 77 % 100 % 1023,0 hPa 0,0 l/m 6,8 km/h (2 Bft) 2 min 0 min 4,8 km/h (1 Bft)
28.01.2011 11:22 10,6 C -0,1 C 0,6 UV-I 6,7 C 44 % 76 % 100 % 1023,0 hPa 0,0 l/m 7,2 km/h (2 Bft) 2 min 0 min 6,4 km/h (2 Bft)
28.01.2011 11:24 10,6 C -0,1 C 0,6 UV-I 6,7 C 44 % 76 % 100 % 1023,0 hPa 0,0 l/m 6,0 km/h (2 Bft) 2 min 0 min 5,8 km/h (2 Bft)
28.01.2011 11:26 10,6 C -0,1 C 0,7 UV-I 6,8 C 44 % 76 % 100 % 1023,0 hPa 0,0 l/m 6,4 km/h (2 Bft) 2 min 0 min 6,4 km/h (2 Bft)
28.01.2011 11:28 10,6 C 0,0 C 0,7 UV-I 6,7 C 44 % 76 % 100 % 1023,0 hPa 0,0 l/m 6,4 km/h (2 Bft) 2 min 0 min 11,9 km/h (2 Bft)
28.01.2011 11:30 10,6 C 0,0 C 0,9 UV-I 6,6 C 44 % 76 % 100 % 1023,0 hPa 0,0 l/m 6,8 km/h (2 Bft) 2 min 0 min 5,5 km/h (1 Bft)
28.01.2011 11:32 10,6 C 0,0 C 0,9 UV-I 6,5 C 44 % 76 % 100 % 1023,0 hPa 0,0 l/m 7,2 km/h (2 Bft) 2 min 0 min 6,4 km/h (2 Bft)
28.01.2011 11:34 10,6 C 0,2 C 0,9 UV-I 6,5 C 44 % 76 % 100 % 1023,0 hPa 0,0 l/m 6,4 km/h (2 Bft) 2 min 0 min 3,9 km/h (1 Bft)
28.01.2011 11:36 10,6 C 0,2 C 1,0 UV-I 6,5 C 44 % 76 % 100 % 1023,0 hPa 0,0 l/m 6,8 km/h (2 Bft) 2 min 0 min 5,5 km/h (1 Bft)
28.01.2011 11:38 10,6 C 0,3 C 1,0 UV-I 6,4 C 44 % 76 % 100 % 1023,0 hPa 0,0 l/m 6,4 km/h (2 Bft) 2 min 0 min 5,1 km/h (1 Bft)
28.01.2011 11:40 10,6 C 0,3 C 1,1 UV-I 6,6 C 44 % 75 % 100 % 1023,0 hPa 0,0 l/m 5,6 km/h (1 Bft) 2 min 0 min 5,5 km/h (1 Bft)
28.01.2011 11:42 10,6 C 0,4 C 1,1 UV-I 6,5 C 44 % 75 % 100 % 1023,0 hPa 0,0 l/m 5,6 km/h (1 Bft) 2 min 0 min 4,5 km/h (1 Bft)
28.01.2011 11:44 10,7 C 0,4 C 1,1 UV-I 6,5 C 44 % 75 % 100 % 1023,0 hPa 0,0 l/m 5,6 km/h (1 Bft) 2 min 0 min 6,1 km/h (2 Bft)
28.01.2011 11:46 10,6 C 0,5 C 1,2 UV-I 6,5 C 44 % 75 % 100 % 1023,0 hPa 0,0 l/m 6,0 km/h (2 Bft) 2 min 0 min 7,7 km/h (2 Bft)
28.01.2011 11:48 10,7 C 0,4 C 1,2 UV-I 6,6 C 44 % 74 % 100 % 1023,0 hPa 0,0 l/m 6,0 km/h (2 Bft) 2 min 0 min 5,8 km/h (2 Bft)
28.01.2011 11:50 10,6 C 0,4 C 1,1 UV-I 6,7 C 44 % 74 % 100 % 1023,0 hPa 0,0 l/m 6,8 km/h (2 Bft) 2 min 0 min 11,9 km/h (2 Bft)
28.01.2011 11:52 10,7 C 0,5 C 1,1 UV-I 6,5 C 44 % 74 % 100 % 1023,0 hPa 0,0 l/m 6,4 km/h (2 Bft) 2 min 0 min 3,5 km/h (1 Bft)
28.01.2011 11:54 10,7 C 0,5 C 1,1 UV-I 6,6 C 44 % 74 % 100 % 1023,0 hPa 0,0 l/m 6,8 km/h (2 Bft) 2 min 0 min 4,2 km/h (1 Bft)
28.01.2011 11:56 10,7 C 0,7 C 0,9 UV-I 6,4 C 44 % 74 % 100 % 1023,0 hPa 0,0 l/m 6,8 km/h (2 Bft) 2 min 0 min 7,4 km/h (2 Bft)
28.01.2011 11:58 10,7 C 0,7 C 0,9 UV-I 6,5 C 44 % 74 % 100 % 1023,0 hPa 0,0 l/m 6,4 km/h (2 Bft) 2 min 0 min 4,5 km/h (1 Bft)
28.01.2011 12:00 10,7 C 0,7 C 0,8 UV-I 6,6 C 44 % 73 % 100 % 1023,0 hPa 0,0 l/m 6,8 km/h (2 Bft) 2 min 0 min 6,4 km/h (2 Bft)
28.01.2011 12:02 10,7 C 0,7 C 0,8 UV-I 6,6 C 44 % 73 % 100 % 1023,0 hPa 0,0 l/m 6,4 km/h (2 Bft) 2 min 0 min 11,6 km/h (2 Bft)
28.01.2011 12:04 10,7 C 0,7 C 0,8 UV-I 6,6 C 44 % 73 % 100 % 1023,0 hPa 0,0 l/m 6,4 km/h (2 Bft) 2 min 0 min 11,6 km/h (2 Bft)
28.01.2011 12:06 10,7 C 0,8 C 0,8 UV-I 6,4 C 44 % 73 % 100 % 1022,9 hPa 0,0 l/m 7,2 km/h (2 Bft) 2 min 0 min 3,5 km/h (1 Bft)
28.01.2011 12:08 10,6 C 0,8 C 0,8 UV-I 6,7 C 44 % 73 % 100 % 1022,9 hPa 0,0 l/m 6,0 km/h (2 Bft) 2 min 0 min 8,4 km/h (2 Bft)
28.01.2011 12:10 10,8 C 0,9 C 0,8 UV-I 6,7 C 43 % 73 % 100 % 1022,9 hPa 0,0 l/m 6,0 km/h (2 Bft) 2 min 0 min 6,8 km/h (2 Bft)
28.01.2011 12:12 10,8 C 1,1 C 0,8 UV-I 6,6 C 43 % 73 % 100 % 1022,9 hPa 0,0 l/m 6,0 km/h (2 Bft) 2 min 0 min 9,3 km/h (2 Bft)
28.01.2011 12:14 10,8 C 1,1 C 0,8 UV-I 6,6 C 43 % 73 % 100 % 1022,9 hPa 0,0 l/m 5,6 km/h (1 Bft) 2 min 0 min 13,8 km/h (3 Bft)
28.01.2011 12:16 10,8 C 1,2 C 0,9 UV-I 6,5 C 43 % 72 % 100 % 1022,9 hPa 0,0 l/m 5,2 km/h (1 Bft) 2 min 0 min 10,6 km/h (2 Bft)
28.01.2011 12:18 10,8 C 1,2 C 0,9 UV-I 6,6 C 44 % 72 % 100 % 1022,9 hPa 0,0 l/m 6,0 km/h (2 Bft) 2 min 0 min 5,5 km/h (1 Bft)
28.01.2011 12:20 10,8 C 1,2 C 0,9 UV-I 6,6 C 43 % 72 % 100 % 1022,9 hPa 0,0 l/m 6,4 km/h (2 Bft) 2 min 0 min 5,8 km/h (2 Bft)
28.01.2011 12:22 10,8 C 1,2 C 0,9 UV-I 6,7 C 43 % 71 % 100 % 1022,9 hPa 0,0 l/m 6,8 km/h (2 Bft) 2 min 0 min 8,0 km/h (2 Bft)
28.01.2011 12:24 10,8 C 1,3 C 0,9 UV-I 6,6 C 43 % 72 % 100 % 1022,9 hPa 0,0 l/m 7,2 km/h (2 Bft) 2 min 0 min 5,5 km/h (1 Bft)
28.01.2011 12:26 10,8 C 1,2 C 1,0 UV-I 6,7 C 43 % 72 % 100 % 1022,8 hPa 0,0 l/m 6,8 km/h (2 Bft) 2 min 0 min 4,8 km/h (1 Bft)
28.01.2011 12:28 10,8 C 1,2 C 1,0 UV-I 6,8 C 43 % 71 % 100 % 1022,8 hPa 0,0 l/m 6,8 km/h (2 Bft) 2 min 0 min 12,2 km/h (2 Bft)
28.01.2011 12:30 10,8 C 1,4 C 1,0 UV-I 6,4 C 43 % 71 % 100 % 1022,8 hPa 0,0 l/m 6,8 km/h (2 Bft) 2 min 0 min 6,8 km/h (2 Bft)
28.01.2011 12:32 10,8 C 1,4 C 1,0 UV-I 6,4 C 43 % 71 % 100 % 1022,8 hPa 0,0 l/m 7,2 km/h (2 Bft) 2 min 0 min 6,1 km/h (2 Bft)
28.01.2011 12:34 10,8 C 1,4 C 1,0 UV-I 6,4 C 43 % 71 % 100 % 1022,8 hPa 0,0 l/m 6,8 km/h (2 Bft) 2 min 0 min 9,7 km/h (2 Bft)
28.01.2011 12:36 10,8 C 1,5 C 1,0 UV-I 6,5 C 43 % 71 % 100 % 1022,8 hPa 0,0 l/m 6,8 km/h (2 Bft) 2 min 0 min 4,8 km/h (1 Bft)
28.01.2011 12:38 10,8 C 1,4 C 1,0 UV-I 6,7 C 43 % 71 % 100 % 1022,8 hPa 0,0 l/m 6,8 km/h (2 Bft) 2 min 0 min 5,1 km/h (1 Bft)
28.01.2011 12:40 10,9 C 1,5 C 1,1 UV-I 6,7 C 43 % 70 % 100 % 1022,8 hPa 0,0 l/m 6,4 km/h (2 Bft) 2 min 0 min 4,2 km/h (1 Bft)
28.01.2011 12:42 10,9 C 1,6 C 1,1 UV-I 6,7 C 43 % 70 % 100 % 1022,8 hPa 0,0 l/m 6,0 km/h (2 Bft) 2 min 0 min 4,8 km/h (1 Bft)
28.01.2011 12:44 10,9 C 1,6 C 1,1 UV-I 6,8 C 43 % 70 % 100 % 1022,8 hPa 0,0 l/m 5,6 km/h (1 Bft) 2 min 0 min 6,8 km/h (2 Bft)
28.01.2011 12:46 10,9 C 1,6 C 1,1 UV-I 6,8 C 43 % 70 % 100 % 1022,4 hPa 0,0 l/m 6,0 km/h (2 Bft) 2 min 0 min 13,2 km/h (3 Bft)
28.01.2011 12:48 10,8 C 1,7 C 1,1 UV-I 6,3 C 43 % 70 % 100 % 1022,4 hPa 0,0 l/m 7,2 km/h (2 Bft) 2 min 0 min 6,4 km/h (2 Bft)
28.01.2011 12:50 10,8 C 1,7 C 1,2 UV-I 6,2 C 43 % 70 % 100 % 1022,4 hPa 0,0 l/m 6,8 km/h (2 Bft) 2 min 0 min 8,4 km/h (2 Bft)
28.01.2011 12:52 10,8 C 1,9 C 1,2 UV-I 6,0 C 43 % 70 % 100 % 1022,4 hPa 0,0 l/m 8,0 km/h (2 Bft) 2 min 0 min 9,0 km/h (2 Bft)
28.01.2011 12:54 10,8 C 1,8 C 1,2 UV-I 6,0 C 43 % 70 % 100 % 1022,4 hPa 0,0 l/m 7,2 km/h (2 Bft) 2 min 0 min 4,8 km/h (1 Bft)
28.01.2011 12:56 10,8 C 1,9 C 1,2 UV-I 6,1 C 43 % 70 % 100 % 1022,4 hPa 0,0 l/m 7,2 km/h (2 Bft) 2 min 0 min 10,6 km/h (2 Bft)
28.01.2011 12:58 11,0 C 2,0 C 1,2 UV-I 6,3 C 43 % 70 % 100 % 1022,4 hPa 0,0 l/m 5,6 km/h (1 Bft) 2 min 0 min 3,9 km/h (1 Bft)
28.01.2011 13:00 10,8 C 2,1 C 1,4 UV-I 6,4 C 43 % 69 % 100 % 1022,4 hPa 0,0 l/m 4,8 km/h (1 Bft) 2 min 0 min 0,0 km/h (0 Bft)
28.01.2011 13:02 11,0 C 2,3 C 1,4 UV-I 6,6 C 43 % 70 % 100 % 1022,4 hPa 0,0 l/m 4,0 km/h (1 Bft) 2 min 0 min 8,0 km/h (2 Bft)
28.01.2011 13:04 11,0 C 2,3 C 1,4 UV-I 6,5 C 43 % 68 % 100 % 1022,4 hPa 0,0 l/m 4,4 km/h (1 Bft) 2 min 0 min 7,1 km/h (2 Bft)
28.01.2011 13:06 11,0 C 2,3 C 1,3 UV-I 6,5 C 43 % 68 % 100 % 1022,4 hPa 0,0 l/m 4,4 km/h (1 Bft) 2 min 0 min 5,1 km/h (1 Bft)
28.01.2011 13:08 11,0 C 2,3 C 1,3 UV-I 6,3 C 43 % 68 % 100 % 1022,4 hPa 0,0 l/m 4,8 km/h (1 Bft) 2 min 0 min 0,0 km/h (0 Bft)
28.01.2011 13:10 10,9 C 2,3 C 1,4 UV-I 6,3 C 43 % 68 % 100 % 1022,4 hPa 0,0 l/m 5,2 km/h (1 Bft) 2 min 0 min 6,8 km/h (2 Bft)
28.01.2011 13:12 11,1 C 2,2 C 1,4 UV-I 6,5 C 43 % 68 % 100 % 1022,4 hPa 0,0 l/m 6,4 km/h (2 Bft) 2 min 0 min 7,7 km/h (2 Bft)
28.01.2011 13:14 11,1 C 2,3 C 1,4 UV-I 6,3 C 43 % 68 % 100 % 1022,4 hPa 0,0 l/m 6,4 km/h (2 Bft) 2 min 0 min 17,7 km/h (3 Bft)
28.01.2011 13:16 11,1 C 2,2 C 1,5 UV-I 6,3 C 43 % 68 % 100 % 1022,4 hPa 0,0 l/m 6,4 km/h (2 Bft) 2 min 0 min 7,7 km/h (2 Bft)
28.01.2011 13:18 11,1 C 2,3 C 1,5 UV-I 6,2 C 43 % 68 % 100 % 1022,4 hPa 0,0 l/m 6,8 km/h (2 Bft) 2 min 0 min 8,7 km/h (2 Bft)
28.01.2011 13:20 11,2 C 2,3 C 1,4 UV-I 6,3 C 43 % 68 % 100 % 1022,4 hPa 0,0 l/m 6,8 km/h (2 Bft) 2 min 0 min 6,1 km/h (2 Bft)
28.01.2011 13:22 11,2 C 2,3 C 1,4 UV-I 6,2 C 43 % 68 % 100 % 1022,4 hPa 0,0 l/m 6,8 km/h (2 Bft) 2 min 0 min 7,1 km/h (2 Bft)
28.01.2011 13:24 11,2 C 2,3 C 1,4 UV-I 6,1 C 43 % 68 % 100 % 1022,4 hPa 0,0 l/m 6,4 km/h (2 Bft) 2 min 0 min 19,0 km/h (3 Bft)
28.01.2011 13:26 11,1 C 2,5 C 1,4 UV-I 6,1 C 43 % 68 % 100 % 1022,4 hPa 0,0 l/m 6,0 km/h (2 Bft) 2 min 0 min 7,7 km/h (2 Bft)
28.01.2011 13:28 11,2 C 2,4 C 1,4 UV-I 6,2 C 43 % 67 % 100 % 1022,4 hPa 0,0 l/m 6,4 km/h (2 Bft) 2 min 0 min 8,0 km/h (2 Bft)
28.01.2011 13:30 11,1 C 2,4 C 1,3 UV-I 6,3 C 43 % 67 % 100 % 1022,4 hPa 0,0 l/m 5,6 km/h (1 Bft) 2 min 0 min 9,0 km/h (2 Bft)
28.01.2011 13:32 11,3 C 2,4 C 1,3 UV-I 6,4 C 43 % 67 % 100 % 1022,4 hPa 0,0 l/m 5,6 km/h (1 Bft) 2 min 0 min 3,9 km/h (1 Bft)
28.01.2011 13:34 11,2 C 2,5 C 1,3 UV-I 6,3 C 43 % 67 % 100 % 1022,4 hPa 0,0 l/m 5,6 km/h (1 Bft) 2 min 0 min 6,1 km/h (2 Bft)
28.01.2011 13:36 11,4 C 2,5 C 1,3 UV-I 6,3 C 43 % 67 % 100 % 1022,4 hPa 0,0 l/m 6,0 km/h (2 Bft) 2 min 0 min 8,4 km/h (2 Bft)
28.01.2011 13:38 11,4 C 2,5 C 1,3 UV-I 6,3 C 43 % 67 % 100 % 1022,4 hPa 0,0 l/m 5,6 km/h (1 Bft) 2 min 0 min 3,5 km/h (1 Bft)
28.01.2011 13:40 11,3 C 2,6 C 1,2 UV-I 6,2 C 43 % 67 % 100 % 1022,4 hPa 0,0 l/m 6,4 km/h (2 Bft) 2 min 0 min 7,1 km/h (2 Bft)
28.01.2011 13:42 11,5 C 2,6 C 1,2 UV-I 6,1 C 44 % 66 % 100 % 1022,4 hPa 0,0 l/m 6,8 km/h (2 Bft) 2 min 0 min 5,8 km/h (2 Bft)
28.01.2011 13:44 11,5 C 2,7 C 1,2 UV-I 5,9 C 44 % 66 % 100 % 1022,4 hPa 0,0 l/m 7,2 km/h (2 Bft) 2 min 0 min 8,7 km/h (2 Bft)
28.01.2011 13:46 11,6 C 2,7 C 1,2 UV-I 5,9 C 45 % 67 % 100 % 1022,2 hPa 0,0 l/m 6,8 km/h (2 Bft) 2 min 0 min 6,1 km/h (2 Bft)
28.01.2011 13:48 11,6 C 2,6 C 1,2 UV-I 6,0 C 45 % 66 % 100 % 1022,2 hPa 0,0 l/m 6,4 km/h (2 Bft) 2 min 0 min 8,0 km/h (2 Bft)
28.01.2011 13:50 11,6 C 2,7 C 1,2 UV-I 5,9 C 45 % 66 % 100 % 1022,2 hPa 0,0 l/m 7,6 km/h (2 Bft) 2 min 0 min 8,0 km/h (2 Bft)
28.01.2011 13:52 11,6 C 2,7 C 1,2 UV-I 5,8 C 45 % 66 % 100 % 1022,2 hPa 0,0 l/m 6,8 km/h (2 Bft) 2 min 0 min 0,0 km/h (0 Bft)
28.01.2011 13:54 11,8 C 2,7 C 1,2 UV-I 5,8 C 45 % 66 % 100 % 1022,2 hPa 0,0 l/m 6,0 km/h (2 Bft) 2 min 0 min 8,7 km/h (2 Bft)
28.01.2011 13:56 11,9 C 2,7 C 1,1 UV-I 5,8 C 45 % 66 % 100 % 1022,2 hPa 0,0 l/m 6,4 km/h (2 Bft) 2 min 0 min 7,4 km/h (2 Bft)
28.01.2011 13:58 12,0 C 2,6 C 1,1 UV-I 5,8 C 45 % 66 % 100 % 1022,2 hPa 0,0 l/m 6,8 km/h (2 Bft) 2 min 0 min 4,5 km/h (1 Bft)
28.01.2011 14:00 12,0 C 2,7 C 1,1 UV-I 5,6 C 45 % 66 % 100 % 1022,2 hPa 0,0 l/m 6,8 km/h (2 Bft) 2 min 0 min 8,7 km/h (2 Bft)
28.01.2011 14:02 11,9 C 2,6 C 1,1 UV-I 5,7 C 44 % 66 % 100 % 1022,2 hPa 0,0 l/m 6,8 km/h (2 Bft) 2 min 0 min 6,1 km/h (2 Bft)
28.01.2011 14:04 12,1 C 2,6 C 1,1 UV-I 5,5 C 44 % 65 % 100 % 1022,2 hPa 0,0 l/m 7,6 km/h (2 Bft) 2 min 0 min 5,5 km/h (1 Bft)
28.01.2011 14:06 12,1 C 2,7 C 1,1 UV-I 5,3 C 44 % 65 % 100 % 1023,5 hPa 0,0 l/m 8,0 km/h (2 Bft) 2 min 0 min 10,6 km/h (2 Bft)
28.01.2011 14:08 12,2 C 2,6 C 1,1 UV-I 5,4 C 43 % 66 % 100 % 1023,5 hPa 0,0 l/m 6,8 km/h (2 Bft) 2 min 0 min 3,9 km/h (1 Bft)
28.01.2011 14:10 12,3 C 2,6 C 1,1 UV-I 5,5 C 43 % 66 % 100 % 1023,5 hPa 0,0 l/m 6,4 km/h (2 Bft) 2 min 0 min 6,1 km/h (2 Bft)
28.01.2011 14:12 12,4 C 2,8 C 1,1 UV-I 5,4 C 43 % 66 % 100 % 1023,5 hPa 0,0 l/m 6,4 km/h (2 Bft) 2 min 0 min 10,6 km/h (2 Bft)
28.01.2011 14:14 12,3 C 2,8 C 1,1 UV-I 5,3 C 42 % 66 % 100 % 1023,5 hPa 0,0 l/m 6,8 km/h (2 Bft) 2 min 0 min 6,4 km/h (2 Bft)
28.01.2011 14:16 12,4 C 2,8 C 1,0 UV-I 5,3 C 42 % 66 % 100 % 1023,5 hPa 0,0 l/m 6,4 km/h (2 Bft) 2 min 0 min 7,7 km/h (2 Bft)
28.01.2011 14:18 12,4 C 2,8 C 1,0 UV-I 5,3 C 42 % 66 % 100 % 1023,5 hPa 0,0 l/m 6,4 km/h (2 Bft) 2 min 0 min 6,8 km/h (2 Bft)
28.01.2011 14:20 12,6 C 2,7 C 1,0 UV-I 5,4 C 42 % 65 % 100 % 1023,5 hPa 0,0 l/m 7,6 km/h (2 Bft) 2 min 0 min 8,7 km/h (2 Bft)
28.01.2011 14:22 12,6 C 2,8 C 1,0 UV-I 5,1 C 42 % 66 % 100 % 1023,5 hPa 0,0 l/m 8,4 km/h (2 Bft) 2 min 0 min 6,8 km/h (2 Bft)
28.01.2011 14:24 12,6 C 2,8 C 1,0 UV-I 4,9 C 42 % 66 % 100 % 1023,5 hPa 0,0 l/m 8,0 km/h (2 Bft) 2 min 0 min 5,1 km/h (1 Bft)
28.01.2011 14:26 12,8 C 2,8 C 1,0 UV-I 5,0 C 42 % 66 % 100 % 1023,8 hPa 0,0 l/m 6,8 km/h (2 Bft) 2 min 0 min 5,5 km/h (1 Bft)
28.01.2011 14:28 12,8 C 2,8 C 1,0 UV-I 5,1 C 42 % 66 % 100 % 1023,8 hPa 0,0 l/m 7,2 km/h (2 Bft) 2 min 0 min 7,7 km/h (2 Bft)
28.01.2011 14:30 12,9 C 2,9 C 0,9 UV-I 5,0 C 42 % 65 % 100 % 1023,8 hPa 0,0 l/m 8,0 km/h (2 Bft) 2 min 0 min 11,6 km/h (2 Bft)
28.01.2011 14:32 13,0 C 2,9 C 0,9 UV-I 4,7 C 42 % 65 % 100 % 1023,8 hPa 0,0 l/m 7,2 km/h (2 Bft) 2 min 0 min 7,4 km/h (2 Bft)
28.01.2011 14:34 13,0 C 2,9 C 0,9 UV-I 4,7 C 42 % 65 % 100 % 1023,8 hPa 0,0 l/m 7,2 km/h (2 Bft) 2 min 0 min 24,5 km/h (4 Bft)
28.01.2011 14:36 12,9 C 2,9 C 1,0 UV-I 4,8 C 42 % 66 % 100 % 1023,8 hPa 0,0 l/m 8,0 km/h (2 Bft) 2 min 0 min 4,2 km/h (1 Bft)
28.01.2011 14:38 13,1 C 2,9 C 1,0 UV-I 4,8 C 42 % 65 % 100 % 1023,8 hPa 0,0 l/m 8,0 km/h (2 Bft) 2 min 0 min 7,1 km/h (2 Bft)
28.01.2011 14:40 13,2 C 2,8 C 0,9 UV-I 4,9 C 42 % 65 % 100 % 1023,8 hPa 0,0 l/m 7,2 km/h (2 Bft) 2 min 0 min 8,0 km/h (2 Bft)
28.01.2011 14:42 13,1 C 2,9 C 0,9 UV-I 4,8 C 42 % 65 % 100 % 1023,8 hPa 0,0 l/m 7,2 km/h (2 Bft) 2 min 0 min 7,7 km/h (2 Bft)
28.01.2011 14:44 13,1 C 2,9 C 0,9 UV-I 4,8 C 42 % 65 % 100 % 1023,8 hPa 0,0 l/m 6,8 km/h (2 Bft) 2 min 0 min 6,1 km/h (2 Bft)
28.01.2011 14:46 13,2 C 2,8 C 0,8 UV-I 4,9 C 42 % 66 % 100 % 1023,4 hPa 0,0 l/m 6,8 km/h (2 Bft) 2 min 0 min 4,8 km/h (1 Bft)
28.01.2011 14:48 13,4 C 2,9 C 0,8 UV-I 4,9 C 42 % 66 % 100 % 1023,4 hPa 0,0 l/m 6,4 km/h (2 Bft) 2 min 0 min 4,8 km/h (1 Bft)
28.01.2011 14:50 13,4 C 2,9 C 0,9 UV-I 5,0 C 42 % 66 % 100 % 1023,4 hPa 0,0 l/m 6,4 km/h (2 Bft) 2 min 0 min 10,0 km/h (2 Bft)
28.01.2011 14:52 13,3 C 2,8 C 0,9 UV-I 5,2 C 42 % 65 % 100 % 1023,4 hPa 0,0 l/m 6,8 km/h (2 Bft) 2 min 0 min 8,4 km/h (2 Bft)
28.01.2011 14:54 13,4 C 2,8 C 0,9 UV-I 5,2 C 43 % 66 % 100 % 1023,4 hPa 0,0 l/m 6,8 km/h (2 Bft) 2 min 0 min 8,0 km/h (2 Bft)
28.01.2011 14:56 13,6 C 2,7 C 0,9 UV-I 5,2 C 42 % 65 % 100 % 1023,4 hPa 0,0 l/m 7,2 km/h (2 Bft) 2 min 0 min 6,4 km/h (2 Bft)
28.01.2011 14:58 13,6 C 2,7 C 0,9 UV-I 5,1 C 43 % 65 % 100 % 1023,4 hPa 0,0 l/m 8,0 km/h (2 Bft) 2 min 0 min 13,5 km/h (3 Bft)
28.01.2011 15:00 13,7 C 2,8 C 0,8 UV-I 4,8 C 43 % 66 % 100 % 1023,4 hPa 0,0 l/m 8,0 km/h (2 Bft) 2 min 0 min 5,5 km/h (1 Bft)
28.01.2011 15:02 13,6 C 2,8 C 0,8 UV-I 4,8 C 43 % 66 % 100 % 1023,4 hPa 0,0 l/m 7,2 km/h (2 Bft) 2 min 0 min 5,8 km/h (2 Bft)
28.01.2011 15:04 13,8 C 2,8 C 0,8 UV-I 4,9 C 42 % 66 % 100 % 1023,4 hPa 0,0 l/m 7,2 km/h (2 Bft) 2 min 0 min 7,1 km/h (2 Bft)
28.01.2011 15:06 13,8 C 2,9 C 0,7 UV-I 4,8 C 43 % 66 % 100 % 1023,9 hPa 0,0 l/m 6,8 km/h (2 Bft) 2 min 0 min 7,1 km/h (2 Bft)
28.01.2011 15:08 13,8 C 2,8 C 0,7 UV-I 4,9 C 43 % 66 % 100 % 1023,9 hPa 0,0 l/m 6,8 km/h (2 Bft) 2 min 0 min 12,9 km/h (3 Bft)
28.01.2011 15:10 13,9 C 2,8 C 0,7 UV-I 4,9 C 42 % 66 % 100 % 1023,9 hPa 0,0 l/m 6,0 km/h (2 Bft) 2 min 0 min 8,0 km/h (2 Bft)
28.01.2011 15:12 13,8 C 2,8 C 0,7 UV-I 4,9 C 42 % 66 % 100 % 1023,9 hPa 0,0 l/m 6,8 km/h (2 Bft) 2 min 0 min 10,3 km/h (2 Bft)
28.01.2011 15:14 14,0 C 2,7 C 0,7 UV-I 4,9 C 42 % 66 % 100 % 1023,9 hPa 0,0 l/m 7,2 km/h (2 Bft) 2 min 0 min 4,5 km/h (1 Bft)
28.01.2011 15:16 14,0 C 2,7 C 0,8 UV-I 4,7 C 42 % 66 % 100 % 1023,9 hPa 0,0 l/m 7,6 km/h (2 Bft) 2 min 0 min 10,9 km/h (2 Bft)
28.01.2011 15:18 13,9 C 2,7 C 0,8 UV-I 4,7 C 42 % 66 % 100 % 1023,9 hPa 0,0 l/m 7,6 km/h (2 Bft) 2 min 0 min 7,4 km/h (2 Bft)
28.01.2011 15:20 14,1 C 2,5 C 0,7 UV-I 4,7 C 42 % 66 % 100 % 1023,9 hPa 0,0 l/m 7,6 km/h (2 Bft) 2 min 0 min 6,1 km/h (2 Bft)
28.01.2011 15:22 14,1 C 2,7 C 0,7 UV-I 4,4 C 42 % 67 % 100 % 1023,9 hPa 0,0 l/m 7,2 km/h (2 Bft) 2 min 0 min 5,5 km/h (1 Bft)
28.01.2011 15:24 14,1 C 2,7 C 0,7 UV-I 4,3 C 42 % 67 % 100 % 1023,9 hPa 0,0 l/m 6,8 km/h (2 Bft) 2 min 0 min 8,0 km/h (2 Bft)
28.01.2011 15:26 14,2 C 2,7 C 0,7 UV-I 4,2 C 42 % 66 % 100 % 1024,2 hPa 0,0 l/m 6,8 km/h (2 Bft) 2 min 0 min 4,8 km/h (1 Bft)
28.01.2011 15:28 14,2 C 2,5 C 0,7 UV-I 4,2 C 42 % 67 % 100 % 1024,2 hPa 0,0 l/m 6,4 km/h (2 Bft) 2 min 0 min 7,1 km/h (2 Bft)
28.01.2011 15:30 14,2 C 2,4 C 0,7 UV-I 4,2 C 42 % 67 % 100 % 1024,2 hPa 0,0 l/m 6,8 km/h (2 Bft) 2 min 0 min 4,5 km/h (1 Bft)
28.01.2011 15:32 14,3 C 2,2 C 0,7 UV-I 4,2 C 42 % 67 % 100 % 1024,2 hPa 0,0 l/m 7,6 km/h (2 Bft) 2 min 0 min 7,4 km/h (2 Bft)
28.01.2011 15:34 14,3 C 2,1 C 0,7 UV-I 4,1 C 42 % 68 % 100 % 1024,2 hPa 0,0 l/m 8,0 km/h (2 Bft) 2 min 0 min 12,2 km/h (2 Bft)
28.01.2011 15:36 14,2 C 2,0 C 0,6 UV-I 4,0 C 41 % 68 % 100 % 1024,2 hPa 0,0 l/m 7,6 km/h (2 Bft) 2 min 0 min 6,4 km/h (2 Bft)
28.01.2011 15:38 14,2 C 2,0 C 0,6 UV-I 3,8 C 41 % 68 % 100 % 1024,2 hPa 0,0 l/m 8,0 km/h (2 Bft) 2 min 0 min 5,8 km/h (2 Bft)
28.01.2011 15:40 14,4 C 1,9 C 0,6 UV-I 3,8 C 41 % 68 % 100 % 1024,2 hPa 0,0 l/m 8,0 km/h (2 Bft) 2 min 0 min 7,7 km/h (2 Bft)
28.01.2011 15:42 14,4 C 1,8 C 0,6 UV-I 3,8 C 41 % 69 % 100 % 1024,2 hPa 0,0 l/m 7,6 km/h (2 Bft) 2 min 0 min 4,8 km/h (1 Bft)
28.01.2011 15:44 14,4 C 1,8 C 0,6 UV-I 3,7 C 41 % 69 % 100 % 1024,2 hPa 0,0 l/m 7,6 km/h (2 Bft) 2 min 0 min 8,4 km/h (2 Bft)
28.01.2011 15:46 14,4 C 1,8 C 0,6 UV-I 3,7 C 41 % 69 % 100 % 1023,7 hPa 0,0 l/m 7,2 km/h (2 Bft) 2 min 0 min 6,8 km/h (2 Bft)
28.01.2011 15:48 14,4 C 1,8 C 0,6 UV-I 3,5 C 41 % 70 % 100 % 1023,7 hPa 0,0 l/m 6,4 km/h (2 Bft) 2 min 0 min 0,0 km/h (0 Bft)
28.01.2011 15:50 14,4 C 1,7 C 0,5 UV-I 3,3 C 41 % 70 % 94 % 1023,7 hPa 0,0 l/m 5,6 km/h (1 Bft) 2 min 0 min 4,2 km/h (1 Bft)
28.01.2011 15:52 14,4 C 1,7 C 0,5 UV-I 2,8 C 41 % 70 % 80 % 1023,7 hPa 0,0 l/m 5,2 km/h (1 Bft) 2 min 0 min 7,1 km/h (2 Bft)
28.01.2011 15:54 14,4 C 1,7 C 0,5 UV-I 2,0 C 41 % 70 % 57 % 1023,7 hPa 0,0 l/m 5,2 km/h (1 Bft) 2 min 0 min 6,8 km/h (2 Bft)
28.01.2011 15:56 14,4 C 1,7 C 0,5 UV-I 1,5 C 41 % 70 % 43 % 1023,7 hPa 0,0 l/m 4,8 km/h (1 Bft) 2 min 0 min 4,2 km/h (1 Bft)
28.01.2011 15:58 14,4 C 1,7 C 0,5 UV-I 0,9 C 41 % 70 % 26 % 1023,7 hPa 0,0 l/m 5,2 km/h (1 Bft) 0 min 0 min 9,0 km/h (2 Bft)
28.01.2011 16:00 14,4 C 1,6 C 0,4 UV-I 0,6 C 41 % 70 % 17 % 1023,7 hPa 0,0 l/m 6,0 km/h (2 Bft) 0 min 0 min 4,2 km/h (1 Bft)
28.01.2011 16:02 14,4 C 1,6 C 0,4 UV-I 0,3 C 41 % 70 % 9 % 1023,7 hPa 0,0 l/m 6,4 km/h (2 Bft) 0 min 0 min 5,5 km/h (1 Bft)
28.01.2011 16:04 14,4 C 1,7 C 0,4 UV-I 0,0 C 41 % 70 % 0 % 1023,7 hPa 0,0 l/m 6,4 km/h (2 Bft) 0 min 0 min 8,4 km/h (2 Bft)
28.01.2011 16:06 14,4 C 1,6 C 0,4 UV-I 0,0 C 41 % 70 % 0 % 1023,0 hPa 0,0 l/m 6,4 km/h (2 Bft) 0 min 0 min 4,5 km/h (1 Bft)
28.01.2011 16:08 14,4 C 1,5 C 0,4 UV-I 0,0 C 41 % 71 % 0 % 1023,0 hPa 0,0 l/m 5,6 km/h (1 Bft) 0 min 0 min 4,2 km/h (1 Bft)
28.01.2011 16:10 14,3 C 1,5 C 0,4 UV-I 0,0 C 41 % 71 % 0 % 1023,0 hPa 0,0 l/m 4,8 km/h (1 Bft) 0 min 0 min 3,2 km/h (1 Bft)
28.01.2011 16:12 14,3 C 1,5 C 0,4 UV-I 0,0 C 41 % 71 % 0 % 1023,0 hPa 0,0 l/m 4,4 km/h (1 Bft) 0 min 0 min 5,8 km/h (2 Bft)
28.01.2011 16:14 14,3 C 1,4 C 0,4 UV-I 0,0 C 41 % 71 % 0 % 1023,0 hPa 0,0 l/m 4,8 km/h (1 Bft) 0 min 0 min 6,4 km/h (2 Bft)
28.01.2011 16:16 14,1 C 1,5 C 0,1 UV-I 0,0 C 41 % 71 % 0 % 1023,0 hPa 0,0 l/m 4,8 km/h (1 Bft) 0 min 0 min 6,8 km/h (2 Bft)
28.01.2011 16:18 14,2 C 1,5 C 0,1 UV-I 0,0 C 41 % 71 % 0 % 1023,0 hPa 0,0 l/m 5,6 km/h (1 Bft) 0 min 0 min 7,1 km/h (2 Bft)
28.01.2011 16:20 14,2 C 1,5 C 0,1 UV-I 0,0 C 41 % 71 % 0 % 1023,0 hPa 0,0 l/m 5,6 km/h (1 Bft) 0 min 0 min 4,2 km/h (1 Bft)
28.01.2011 16:22 14,2 C 1,3 C 0,1 UV-I 0,0 C 41 % 71 % 0 % 1023,0 hPa 0,0 l/m 5,6 km/h (1 Bft) 0 min 0 min 3,5 km/h (1 Bft)
28.01.2011 16:24 14,2 C 1,3 C 0,1 UV-I 0,0 C 41 % 71 % 0 % 1023,0 hPa 0,0 l/m 6,0 km/h (2 Bft) 0 min 0 min 12,6 km/h (3 Bft)
28.01.2011 16:26 14,1 C 1,3 C 0,2 UV-I 0,0 C 40 % 72 % 0 % 1022,1 hPa 0,0 l/m 6,0 km/h (2 Bft) 0 min 0 min 4,2 km/h (1 Bft)
28.01.2011 16:28 14,1 C 1,2 C 0,2 UV-I 0,0 C 40 % 72 % 0 % 1022,1 hPa 0,0 l/m 6,0 km/h (2 Bft) 0 min 0 min 4,5 km/h (1 Bft)
28.01.2011 16:30 14,1 C 1,2 C 0,1 UV-I 0,0 C 40 % 72 % 0 % 1022,1 hPa 0,0 l/m 6,0 km/h (2 Bft) 0 min 0 min 10,3 km/h (2 Bft)
28.01.2011 16:32 13,9 C 1,3 C 0,1 UV-I 0,0 C 40 % 72 % 0 % 1022,1 hPa 0,0 l/m 6,0 km/h (2 Bft) 0 min 0 min 7,1 km/h (2 Bft)
28.01.2011 16:34 14,0 C 1,2 C 0,1 UV-I 0,0 C 40 % 72 % 0 % 1022,1 hPa 0,0 l/m 5,6 km/h (1 Bft) 0 min 0 min 0,0 km/h (0 Bft)
28.01.2011 16:36 14,0 C 1,2 C 0,1 UV-I 0,0 C 41 % 72 % 0 % 1022,1 hPa 0,0 l/m 4,4 km/h (1 Bft) 0 min 0 min 3,5 km/h (1 Bft)
28.01.2011 16:38 14,0 C 1,1 C 0,1 UV-I 0,0 C 41 % 73 % 0 % 1022,1 hPa 0,0 l/m 4,4 km/h (1 Bft) 0 min 0 min 3,5 km/h (1 Bft)
28.01.2011 16:40 13,9 C 1,1 C 0,1 UV-I 0,0 C 41 % 73 % 0 % 1022,1 hPa 0,0 l/m 4,0 km/h (1 Bft) 0 min 0 min 4,2 km/h (1 Bft)
28.01.2011 16:42 13,9 C 1,1 C 0,1 UV-I 0,0 C 41 % 73 % 0 % 1022,1 hPa 0,0 l/m 3,2 km/h (1 Bft) 0 min 0 min 4,8 km/h (1 Bft)
28.01.2011 16:44 13,8 C 1,1 C 0,1 UV-I 0,0 C 41 % 73 % 0 % 1022,1 hPa 0,0 l/m 2,8 km/h (1 Bft) 0 min 0 min 5,8 km/h (2 Bft)
28.01.2011 16:46 13,8 C 1,1 C 0,0 UV-I 0,0 C 41 % 73 % 0 % 1021,8 hPa 0,0 l/m 2,8 km/h (1 Bft) 0 min 0 min 3,5 km/h (1 Bft)
28.01.2011 16:48 13,6 C 1,0 C 0,0 UV-I 0,0 C 41 % 73 % 0 % 1021,8 hPa 0,0 l/m 3,2 km/h (1 Bft) 0 min 0 min 4,5 km/h (1 Bft)
28.01.2011 16:50 13,6 C 1,1 C 0,0 UV-I 0,0 C 41 % 73 % 0 % 1021,8 hPa 0,0 l/m 3,2 km/h (1 Bft) 0 min 0 min 4,8 km/h (1 Bft)
28.01.2011 16:52 13,7 C 0,9 C 0,0 UV-I 0,0 C 41 % 73 % 0 % 1021,8 hPa 0,0 l/m 3,2 km/h (1 Bft) 0 min 0 min 3,2 km/h (1 Bft)
28.01.2011 16:54 13,6 C 0,9 C 0,0 UV-I 0,0 C 41 % 73 % 0 % 1021,8 hPa 0,0 l/m 3,2 km/h (1 Bft) 0 min 0 min 5,1 km/h (1 Bft)
28.01.2011 16:56 13,6 C 0,9 C 0,0 UV-I 0,0 C 41 % 73 % 0 % 1021,8 hPa 0,0 l/m 2,8 km/h (1 Bft) 0 min 0 min 3,9 km/h (1 Bft)
28.01.2011 16:58 13,6 C 0,8 C 0,0 UV-I 0,0 C 41 % 73 % 0 % 1021,8 hPa 0,0 l/m 3,2 km/h (1 Bft) 0 min 0 min 7,7 km/h (2 Bft)
28.01.2011 17:00 13,5 C 0,9 C 0,0 UV-I 0,0 C 42 % 74 % 0 % 1021,8 hPa 0,0 l/m 3,6 km/h (1 Bft) 0 min 0 min 4,5 km/h (1 Bft)
28.01.2011 17:02 13,3 C 0,8 C 0,0 UV-I 0,0 C 42 % 73 % 0 % 1021,8 hPa 0,0 l/m 3,6 km/h (1 Bft) 0 min 0 min 3,9 km/h (1 Bft)
28.01.2011 17:04 13,4 C 0,8 C 0,0 UV-I 0,0 C 42 % 74 % 0 % 1021,8 hPa 0,0 l/m 3,2 km/h (1 Bft) 0 min 0 min 0,0 km/h (0 Bft)
28.01.2011 17:06 13,4 C 0,8 C 0,0 UV-I 0,0 C 42 % 74 % 0 % 1021,7 hPa 0,0 l/m 3,6 km/h (1 Bft) 0 min 0 min 0,0 km/h (0 Bft)
28.01.2011 17:08 13,2 C 0,8 C 0,0 UV-I 0,0 C 42 % 74 % 0 % 1021,7 hPa 0,0 l/m 3,6 km/h (1 Bft) 0 min 0 min 5,8 km/h (2 Bft)
28.01.2011 17:10 13,3 C 0,8 C 0,0 UV-I 0,0 C 42 % 74 % 0 % 1021,7 hPa 0,0 l/m 3,2 km/h (1 Bft) 0 min 0 min 10,0 km/h (2 Bft)
28.01.2011 17:12 13,1 C 0,7 C 0,0 UV-I 0,0 C 42 % 74 % 0 % 1021,7 hPa 0,0 l/m 3,6 km/h (1 Bft) 0 min 0 min 5,1 km/h (1 Bft)
28.01.2011 17:14 13,2 C 0,7 C 0,0 UV-I 0,0 C 42 % 74 % 0 % 1021,7 hPa 0,0 l/m 4,0 km/h (1 Bft) 0 min 0 min 4,8 km/h (1 Bft)
28.01.2011 17:16 13,1 C 0,7 C 0,0 UV-I 0,0 C 43 % 75 % 0 % 1021,7 hPa 0,0 l/m 4,4 km/h (1 Bft) 0 min 0 min 0,0 km/h (0 Bft)
28.01.2011 17:18 13,1 C 0,6 C 0,0 UV-I 0,0 C 43 % 75 % 0 % 1021,7 hPa 0,0 l/m 4,0 km/h (1 Bft) 0 min 0 min 4,2 km/h (1 Bft)
28.01.2011 17:20 12,9 C 0,7 C 0,0 UV-I 0,0 C 43 % 75 % 0 % 1021,7 hPa 0,0 l/m 4,4 km/h (1 Bft) 0 min 0 min 3,9 km/h (1 Bft)
28.01.2011 17:22 13,0 C 0,7 C 0,0 UV-I 0,0 C 43 % 75 % 0 % 1021,7 hPa 0,0 l/m 4,0 km/h (1 Bft) 0 min 0 min 4,8 km/h (1 Bft)
28.01.2011 17:24 12,8 C 0,6 C 0,0 UV-I 0,0 C 43 % 75 % 0 % 1021,7 hPa 0,0 l/m 3,6 km/h (1 Bft) 0 min 0 min 4,5 km/h (1 Bft)
28.01.2011 17:26 12,8 C 0,6 C 0,0 UV-I 0,0 C 43 % 75 % 0 % 1021,5 hPa 0,0 l/m 3,2 km/h (1 Bft) 0 min 0 min 5,5 km/h (1 Bft)
28.01.2011 17:28 12,8 C 0,5 C 0,0 UV-I 0,0 C 43 % 75 % 0 % 1021,5 hPa 0,0 l/m 3,2 km/h (1 Bft) 0 min 0 min 0,0 km/h (0 Bft)
28.01.2011 17:30 12,8 C 0,5 C 0,0 UV-I 0,0 C 43 % 75 % 0 % 1021,5 hPa 0,0 l/m 2,8 km/h (1 Bft) 0 min 0 min 3,2 km/h (1 Bft)
28.01.2011 17:32 12,8 C 0,4 C 0,0 UV-I 0,0 C 43 % 75 % 0 % 1021,5 hPa 0,0 l/m 2,4 km/h (1 Bft) 0 min 0 min 4,5 km/h (1 Bft)
28.01.2011 17:34 12,6 C 0,4 C 0,0 UV-I 0,0 C 43 % 75 % 0 % 1021,5 hPa 0,0 l/m 2,0 km/h (1 Bft) 0 min 0 min 4,2 km/h (1 Bft)
28.01.2011 17:36 12,7 C 0,4 C 0,0 UV-I 0,0 C 43 % 75 % 0 % 1021,5 hPa 0,0 l/m 2,0 km/h (1 Bft) 0 min 0 min 0,0 km/h (0 Bft)
28.01.2011 17:38 12,6 C 0,4 C 0,0 UV-I 0,0 C 43 % 75 % 0 % 1021,5 hPa 0,0 l/m 1,2 km/h (1 Bft) 0 min 0 min 0,0 km/h (0 Bft)
28.01.2011 17:40 12,6 C 0,4 C 0,0 UV-I 0,0 C 43 % 75 % 0 % 1021,5 hPa 0,0 l/m 0,8 km/h (0 Bft) 0 min 0 min 0,0 km/h (0 Bft)
28.01.2011 17:42 12,4 C 0,3 C 0,0 UV-I 0,0 C 43 % 76 % 0 % 1021,5 hPa 0,0 l/m 0,8 km/h (0 Bft) 0 min 0 min 4,5 km/h (1 Bft)
28.01.2011 17:44 12,4 C 0,3 C 0,0 UV-I 0,0 C 43 % 76 % 0 % 1021,5 hPa 0,0 l/m 0,4 km/h (0 Bft) 0 min 0 min 3,2 km/h (1 Bft)
28.01.2011 17:46 12,5 C 0,3 C 0,0 UV-I 0,0 C 43 % 76 % 0 % 1021,7 hPa 0,0 l/m 1,2 km/h (1 Bft) 0 min 0 min 4,8 km/h (1 Bft)
28.01.2011 17:48 12,3 C 0,3 C 0,0 UV-I 0,0 C 43 % 76 % 0 % 1021,7 hPa 0,0 l/m 1,6 km/h (1 Bft) 0 min 0 min 0,0 km/h (0 Bft)
28.01.2011 17:50 12,3 C 0,2 C 0,0 UV-I 0,0 C 43 % 76 % 0 % 1021,7 hPa 0,0 l/m 1,6 km/h (1 Bft) 0 min 0 min 3,5 km/h (1 Bft)
28.01.2011 17:52 12,4 C 0,3 C 0,0 UV-I 0,0 C 44 % 76 % 0 % 1021,7 hPa 0,0 l/m 1,6 km/h (1 Bft) 0 min 0 min 0,0 km/h (0 Bft)
28.01.2011 17:54 12,4 C 0,2 C 0,0 UV-I 0,0 C 44 % 76 % 0 % 1021,7 hPa 0,0 l/m 1,2 km/h (1 Bft) 0 min 0 min 0,0 km/h (0 Bft)
28.01.2011 17:56 12,4 C 0,1 C 0,0 UV-I 0,0 C 44 % 76 % 0 % 1021,7 hPa 0,0 l/m 1,6 km/h (1 Bft) 0 min 0 min 0,0 km/h (0 Bft)
28.01.2011 17:58 12,2 C 0,1 C 0,0 UV-I 0,0 C 44 % 76 % 0 % 1021,7 hPa 0,0 l/m 1,2 km/h (1 Bft) 0 min 0 min 5,5 km/h (1 Bft)
28.01.2011 18:00 12,3 C 0,1 C 0,0 UV-I 0,0 C 44 % 76 % 0 % 1021,7 hPa 0,0 l/m 1,6 km/h (1 Bft) 0 min 0 min 0,0 km/h (0 Bft)
28.01.2011 18:02 12,1 C 0,1 C 0,0 UV-I 0,0 C 44 % 76 % 0 % 1021,7 hPa 0,0 l/m 1,6 km/h (1 Bft) 0 min 0 min 0,0 km/h (0 Bft)
28.01.2011 18:04 12,2 C 0,1 C 0,0 UV-I 0,0 C 44 % 76 % 0 % 1021,7 hPa 0,0 l/m 1,6 km/h (1 Bft) 0 min 0 min 0,0 km/h (0 Bft)
28.01.2011 18:06 12,2 C 0,0 C 0,0 UV-I 0,0 C 44 % 77 % 0 % 1021,4 hPa 0,0 l/m 2,0 km/h (1 Bft) 0 min 0 min 0,0 km/h (0 Bft)
28.01.2011 18:08 12,2 C 0,0 C 0,0 UV-I 0,0 C 44 % 77 % 0 % 1021,4 hPa 0,0 l/m 2,0 km/h (1 Bft) 0 min 0 min 4,2 km/h (1 Bft)
28.01.2011 18:10 12,1 C 0,0 C 0,0 UV-I 0,0 C 45 % 77 % 0 % 1021,4 hPa 0,0 l/m 2,0 km/h (1 Bft) 0 min 0 min 3,9 km/h (1 Bft)
28.01.2011 18:12 12,1 C 0,0 C 0,0 UV-I 0,0 C 45 % 77 % 0 % 1021,4 hPa 0,0 l/m 2,0 km/h (1 Bft) 0 min 0 min 0,0 km/h (0 Bft)
28.01.2011 18:14 12,1 C 0,1 C 0,0 UV-I 0,0 C 45 % 77 % 0 % 1021,4 hPa 0,0 l/m 2,0 km/h (1 Bft) 0 min 0 min 0,0 km/h (0 Bft)
28.01.2011 18:16 11,9 C 0,1 C 0,0 UV-I 0,0 C 45 % 77 % 0 % 1021,4 hPa 0,0 l/m 1,6 km/h (1 Bft) 0 min 0 min 0,0 km/h (0 Bft)
28.01.2011 18:18 11,9 C -0,1 C 0,0 UV-I 0,0 C 45 % 77 % 0 % 1021,4 hPa 0,0 l/m 1,2 km/h (1 Bft) 0 min 0 min 0,0 km/h (0 Bft)
28.01.2011 18:20 12,0 C -0,1 C 0,0 UV-I 0,0 C 45 % 77 % 0 % 1021,4 hPa 0,0 l/m 1,6 km/h (1 Bft) 0 min 0 min 5,5 km/h (1 Bft)
28.01.2011 18:22 12,0 C -0,1 C 0,0 UV-I 0,0 C 45 % 77 % 0 % 1021,4 hPa 0,0 l/m 0,8 km/h (0 Bft) 0 min 0 min 0,0 km/h (0 Bft)
28.01.2011 18:24 12,0 C -0,1 C 0,0 UV-I 0,0 C 45 % 77 % 0 % 1021,4 hPa 0,0 l/m 1,2 km/h (1 Bft) 0 min 0 min 3,9 km/h (1 Bft)
28.01.2011 18:26 11,8 C -0,1 C 0,0 UV-I 0,0 C 45 % 77 % 0 % 1021,5 hPa 0,0 l/m 1,2 km/h (1 Bft) 0 min 0 min 0,0 km/h (0 Bft)
28.01.2011 18:28 11,8 C -0,1 C 0,0 UV-I 0,0 C 45 % 77 % 0 % 1021,5 hPa 0,0 l/m 0,8 km/h (0 Bft) 0 min 0 min 0,0 km/h (0 Bft)
28.01.2011 18:30 11,8 C -0,1 C 0,0 UV-I 0,0 C 45 % 78 % 0 % 1021,5 hPa 0,0 l/m 1,2 km/h (1 Bft) 0 min 0 min 10,0 km/h (2 Bft)
28.01.2011 18:32 11,8 C -0,1 C 0,0 UV-I 0,0 C 45 % 78 % 0 % 1021,5 hPa 0,0 l/m 1,2 km/h (1 Bft) 0 min 0 min 4,8 km/h (1 Bft)
28.01.2011 18:34 11,8 C -0,1 C 0,0 UV-I 0,0 C 45 % 78 % 0 % 1021,5 hPa 0,0 l/m 1,6 km/h (1 Bft) 0 min 0 min 4,5 km/h (1 Bft)
28.01.2011 18:36 11,8 C -0,1 C 0,0 UV-I 0,0 C 45 % 78 % 0 % 1021,5 hPa 0,0 l/m 2,0 km/h (1 Bft) 0 min 0 min 3,9 km/h (1 Bft)
28.01.2011 18:38 11,6 C -0,1 C 0,0 UV-I 0,0 C 45 % 78 % 0 % 1021,5 hPa 0,0 l/m 2,0 km/h (1 Bft) 0 min 0 min 0,0 km/h (0 Bft)
28.01.2011 18:40 11,7 C -0,2 C 0,0 UV-I 0,0 C 45 % 78 % 0 % 1021,5 hPa 0,0 l/m 2,0 km/h (1 Bft) 0 min 0 min 5,1 km/h (1 Bft)
28.01.2011 18:42 11,6 C -0,1 C 0,0 UV-I 0,0 C 45 % 78 % 0 % 1021,5 hPa 0,0 l/m 2,0 km/h (1 Bft) 0 min 0 min 4,8 km/h (1 Bft)
28.01.2011 18:44 11,6 C -0,2 C 0,0 UV-I 0,0 C 46 % 78 % 0 % 1021,5 hPa 0,0 l/m 2,4 km/h (1 Bft) 0 min 0 min 3,9 km/h (1 Bft)
28.01.2011 18:46 11,6 C -0,1 C 0,0 UV-I 0,0 C 46 % 78 % 0 % 1021,2 hPa 0,0 l/m 2,0 km/h (1 Bft) 0 min 0 min 4,8 km/h (1 Bft)
28.01.2011 18:48 11,6 C -0,1 C 0,0 UV-I 0,0 C 46 % 78 % 0 % 1021,2 hPa 0,0 l/m 2,4 km/h (1 Bft) 0 min 0 min 6,8 km/h (2 Bft)
28.01.2011 18:50 11,6 C -0,1 C 0,0 UV-I 0,0 C 46 % 78 % 0 % 1021,2 hPa 0,0 l/m 2,8 km/h (1 Bft) 0 min 0 min 4,8 km/h (1 Bft)
28.01.2011 18:52 11,6 C -0,3 C 0,0 UV-I 0,0 C 46 % 79 % 0 % 1021,2 hPa 0,0 l/m 2,8 km/h (1 Bft) 0 min 0 min 0,0 km/h (0 Bft)
28.01.2011 18:54 11,6 C -0,1 C 0,0 UV-I 0,0 C 46 % 79 % 0 % 1021,2 hPa 0,0 l/m 2,4 km/h (1 Bft) 0 min 0 min 3,9 km/h (1 Bft)
28.01.2011 18:56 11,6 C -0,3 C 0,0 UV-I 0,0 C 46 % 79 % 0 % 1021,2 hPa 0,0 l/m 2,4 km/h (1 Bft) 0 min 0 min 0,0 km/h (0 Bft)
28.01.2011 18:58 11,5 C -0,3 C 0,0 UV-I 0,0 C 45 % 79 % 0 % 1021,2 hPa 0,0 l/m 2,4 km/h (1 Bft) 0 min 0 min 0,0 km/h (0 Bft)
28.01.2011 19:00 11,5 C -0,3 C 0,0 UV-I 0,0 C 45 % 79 % 0 % 1021,2 hPa 0,0 l/m 2,4 km/h (1 Bft) 0 min 0 min 3,9 km/h (1 Bft)
28.01.2011 19:02 11,4 C -0,3 C 0,0 UV-I 0,0 C 44 % 79 % 0 % 1021,2 hPa 0,0 l/m 2,0 km/h (1 Bft) 0 min 0 min 0,0 km/h (0 Bft)
28.01.2011 19:04 11,4 C -0,3 C 0,0 UV-I 0,0 C 45 % 79 % 0 % 1021,2 hPa 0,0 l/m 1,6 km/h (1 Bft) 0 min 0 min 0,0 km/h (0 Bft)
28.01.2011 19:06 11,2 C -0,3 C 0,0 UV-I 0,0 C 44 % 79 % 0 % 1021,5 hPa 0,0 l/m 1,2 km/h (1 Bft) 0 min 0 min 0,0 km/h (0 Bft)
28.01.2011 19:08 11,3 C -0,3 C 0,0 UV-I 0,0 C 45 % 79 % 0 % 1021,5 hPa 0,0 l/m 0,8 km/h (0 Bft) 0 min 0 min 0,0 km/h (0 Bft)
28.01.2011 19:10 11,1 C -0,3 C 0,0 UV-I 0,0 C 45 % 79 % 0 % 1021,5 hPa 0,0 l/m 0,8 km/h (0 Bft) 0 min 0 min 0,0 km/h (0 Bft)
28.01.2011 19:12 11,1 C -0,4 C 0,0 UV-I 0,0 C 45 % 79 % 0 % 1021,5 hPa 0,0 l/m 0,4 km/h (0 Bft) 0 min 0 min 3,2 km/h (1 Bft)
28.01.2011 19:14 11,2 C -0,4 C 0,0 UV-I 0,0 C 45 % 79 % 0 % 1021,5 hPa 0,0 l/m 0,4 km/h (0 Bft) 0 min 0 min 0,0 km/h (0 Bft)
28.01.2011 19:16 11,2 C -0,4 C 0,0 UV-I 0,0 C 45 % 79 % 0 % 1021,5 hPa 0,0 l/m 0,4 km/h (0 Bft) 0 min 0 min 8,4 km/h (2 Bft)
28.01.2011 19:18 11,2 C -0,4 C 0,0 UV-I 0,0 C 46 % 79 % 0 % 1021,5 hPa 0,0 l/m 1,2 km/h (1 Bft) 0 min 0 min 4,2 km/h (1 Bft)
28.01.2011 19:20 11,2 C -0,4 C 0,0 UV-I 0,0 C 46 % 79 % 0 % 1021,5 hPa 0,0 l/m 2,4 km/h (1 Bft) 0 min 0 min 4,5 km/h (1 Bft)
28.01.2011 19:22 11,2 C -0,3 C 0,0 UV-I 0,0 C 46 % 79 % 0 % 1021,5 hPa 0,0 l/m 2,8 km/h (1 Bft) 0 min 0 min 5,8 km/h (2 Bft)
28.01.2011 19:24 11,2 C -0,3 C 0,0 UV-I 0,0 C 47 % 79 % 0 % 1021,5 hPa 0,0 l/m 3,6 km/h (1 Bft) 0 min 0 min 6,4 km/h (2 Bft)
28.01.2011 19:26 11,2 C -0,3 C 0,0 UV-I 0,0 C 47 % 79 % 0 % 1021,4 hPa 0,0 l/m 4,4 km/h (1 Bft) 0 min 0 min 5,5 km/h (1 Bft)
28.01.2011 19:28 11,2 C -0,3 C 0,0 UV-I 0,0 C 47 % 79 % 0 % 1021,4 hPa 0,0 l/m 4,4 km/h (1 Bft) 0 min 0 min 5,1 km/h (1 Bft)
28.01.2011 19:30 11,2 C -0,3 C 0,0 UV-I 0,0 C 47 % 79 % 0 % 1021,4 hPa 0,0 l/m 4,0 km/h (1 Bft) 0 min 0 min 4,5 km/h (1 Bft)
28.01.2011 19:32 11,2 C -0,3 C 0,0 UV-I 0,0 C 47 % 79 % 0 % 1021,4 hPa 0,0 l/m 3,6 km/h (1 Bft) 0 min 0 min 0,0 km/h (0 Bft)
28.01.2011 19:34 11,2 C -0,3 C 0,0 UV-I 0,0 C 48 % 79 % 0 % 1021,4 hPa 0,0 l/m 2,8 km/h (1 Bft) 0 min 0 min 0,0 km/h (0 Bft)
28.01.2011 19:36 11,2 C -0,4 C 0,0 UV-I 0,0 C 48 % 79 % 0 % 1021,4 hPa 0,0 l/m 2,0 km/h (1 Bft) 0 min 0 min 8,0 km/h (2 Bft)
28.01.2011 19:38 11,1 C -0,3 C 0,0 UV-I 0,0 C 48 % 79 % 0 % 1021,4 hPa 0,0 l/m 1,6 km/h (1 Bft) 0 min 0 min 0,0 km/h (0 Bft)
28.01.2011 19:40 11,1 C -0,3 C 0,0 UV-I 0,0 C 48 % 79 % 0 % 1021,4 hPa 0,0 l/m 1,2 km/h (1 Bft) 0 min 0 min 6,8 km/h (2 Bft)
28.01.2011 19:42 11,2 C -0,3 C 0,0 UV-I 0,0 C 48 % 79 % 0 % 1021,4 hPa 0,0 l/m 0,8 km/h (0 Bft) 0 min 0 min 0,0 km/h (0 Bft)
28.01.2011 19:44 11,1 C -0,5 C 0,0 UV-I 0,0 C 48 % 79 % 0 % 1021,4 hPa 0,0 l/m 1,2 km/h (1 Bft) 0 min 0 min 0,0 km/h (0 Bft)
28.01.2011 19:46 11,1 C -0,5 C 0,0 UV-I 0,0 C 48 % 80 % 0 % 1021,2 hPa 0,0 l/m 2,0 km/h (1 Bft) 0 min 0 min 5,1 km/h (1 Bft)
28.01.2011 19:48 11,1 C -0,5 C 0,0 UV-I 0,0 C 48 % 80 % 0 % 1021,2 hPa 0,0 l/m 1,6 km/h (1 Bft) 0 min 0 min 0,0 km/h (0 Bft)
28.01.2011 19:50 11,1 C -0,5 C 0,0 UV-I 0,0 C 47 % 80 % 0 % 1021,2 hPa 0,0 l/m 2,0 km/h (1 Bft) 0 min 0 min 0,0 km/h (0 Bft)
28.01.2011 19:52 11,1 C -0,5 C 0,0 UV-I 0,0 C 47 % 80 % 0 % 1021,2 hPa 0,0 l/m 2,0 km/h (1 Bft) 0 min 0 min 0,0 km/h (0 Bft)
28.01.2011 19:54 10,9 C -0,5 C 0,0 UV-I 0,0 C 47 % 80 % 0 % 1021,2 hPa 0,0 l/m 2,0 km/h (1 Bft) 0 min 0 min 0,0 km/h (0 Bft)
28.01.2011 19:56 10,9 C -0,5 C 0,0 UV-I 0,0 C 47 % 80 % 0 % 1021,2 hPa 0,0 l/m 1,6 km/h (1 Bft) 0 min 0 min 0,0 km/h (0 Bft)
28.01.2011 19:58 11,1 C -0,5 C 0,0 UV-I 0,0 C 47 % 80 % 0 % 1021,2 hPa 0,0 l/m 0,8 km/h (0 Bft) 0 min 0 min 0,0 km/h (0 Bft)
28.01.2011 20:00 10,9 C -0,5 C 0,0 UV-I 0,0 C 47 % 80 % 0 % 1021,2 hPa 0,0 l/m 0,8 km/h (0 Bft) 0 min 0 min 0,0 km/h (0 Bft)
28.01.2011 20:02 11,0 C -0,6 C 0,0 UV-I 0,0 C 47 % 80 % 0 % 1021,2 hPa 0,0 l/m 0,4 km/h (0 Bft) 0 min 0 min 3,5 km/h (1 Bft)
28.01.2011 20:04 11,0 C -0,5 C 0,0 UV-I 0,0 C 47 % 80 % 0 % 1021,2 hPa 0,0 l/m 0,4 km/h (0 Bft) 0 min 0 min 0,0 km/h (0 Bft)
28.01.2011 20:06 11,0 C -0,5 C 0,0 UV-I 0,0 C 47 % 80 % 0 % 1021,4 hPa 0,0 l/m 0,4 km/h (0 Bft) 0 min 0 min 3,9 km/h (1 Bft)
28.01.2011 20:08 11,0 C -0,7 C 0,0 UV-I 0,0 C 47 % 80 % 0 % 1021,4 hPa 0,0 l/m 0,4 km/h (0 Bft) 0 min 0 min 0,0 km/h (0 Bft)
28.01.2011 20:10 11,0 C -0,7 C 0,0 UV-I 0,0 C 47 % 80 % 0 % 1021,4 hPa 0,0 l/m 0,4 km/h (0 Bft) 0 min 0 min 3,2 km/h (1 Bft)
28.01.2011 20:12 11,0 C -0,7 C 0,0 UV-I 0,0 C 47 % 80 % 0 % 1021,4 hPa 0,0 l/m 0,4 km/h (0 Bft) 0 min 0 min 0,0 km/h (0 Bft)
28.01.2011 20:14 11,0 C -0,7 C 0,0 UV-I 0,0 C 47 % 80 % 0 % 1021,4 hPa 0,0 l/m 0,4 km/h (0 Bft) 0 min 0 min 0,0 km/h (0 Bft)
28.01.2011 20:16 11,0 C -0,8 C 0,0 UV-I 0,0 C 47 % 80 % 0 % 1021,4 hPa 0,0 l/m 0,4 km/h (0 Bft) 0 min 0 min 0,0 km/h (0 Bft)
28.01.2011 20:18 11,0 C -0,8 C 0,0 UV-I 0,0 C 47 % 80 % 0 % 1021,4 hPa 0,0 l/m 0,4 km/h (0 Bft) 0 min 0 min 0,0 km/h (0 Bft)
28.01.2011 20:20 10,8 C -0,8 C 0,0 UV-I 0,0 C 47 % 80 % 0 % 1021,4 hPa 0,0 l/m 0,4 km/h (0 Bft) 0 min 0 min 0,0 km/h (0 Bft)
28.01.2011 20:22 10,8 C -0,7 C 0,0 UV-I 0,0 C 47 % 81 % 0 % 1021,4 hPa 0,0 l/m 0,0 km/h (0 Bft) 0 min 0 min 0,0 km/h (0 Bft)
28.01.2011 20:24 10,8 C -0,9 C 0,0 UV-I 0,0 C 47 % 81 % 0 % 1021,4 hPa 0,0 l/m 0,0 km/h (0 Bft) 0 min 0 min 0,0 km/h (0 Bft)
28.01.2011 20:26 10,8 C -0,9 C 0,0 UV-I 0,0 C 47 % 81 % 0 % 1021,4 hPa 0,0 l/m 0,0 km/h (0 Bft) 0 min 0 min 0,0 km/h (0 Bft)
28.01.2011 20:28 10,8 C -0,9 C 0,0 UV-I 0,0 C 48 % 81 % 0 % 1021,4 hPa 0,0 l/m 0,0 km/h (0 Bft) 0 min 0 min 0,0 km/h (0 Bft)
28.01.2011 20:30 10,8 C -0,9 C 0,0 UV-I 0,0 C 48 % 81 % 0 % 1021,4 hPa 0,0 l/m 0,0 km/h (0 Bft) 0 min 0 min 0,0 km/h (0 Bft)
28.01.2011 20:32 10,8 C -0,9 C 0,0 UV-I 0,0 C 48 % 81 % 0 % 1021,4 hPa 0,0 l/m 0,0 km/h (0 Bft) 0 min 0 min 0,0 km/h (0 Bft)
28.01.2011 20:34 10,8 C -0,9 C 0,0 UV-I 0,0 C 48 % 81 % 0 % 1021,4 hPa 0,0 l/m 0,0 km/h (0 Bft) 0 min 0 min 0,0 km/h (0 Bft)
28.01.2011 20:36 10,9 C -1,0 C 0,0 UV-I 0,0 C 48 % 81 % 0 % 1021,4 hPa 0,0 l/m 0,0 km/h (0 Bft) 0 min 0 min 0,0 km/h (0 Bft)
28.01.2011 20:38 10,9 C -0,9 C 0,0 UV-I 0,0 C 48 % 81 % 0 % 1021,4 hPa 0,0 l/m 0,0 km/h (0 Bft) 0 min 0 min 0,0 km/h (0 Bft)
28.01.2011 20:40 10,9 C -0,9 C 0,0 UV-I 0,0 C 48 % 81 % 0 % 1021,4 hPa 0,0 l/m 0,0 km/h (0 Bft) 0 min 0 min 0,0 km/h (0 Bft)
28.01.2011 20:42 10,8 C -1,1 C 0,0 UV-I 0,0 C 48 % 81 % 0 % 1021,4 hPa 0,0 l/m 0,0 km/h (0 Bft) 0 min 0 min 0,0 km/h (0 Bft)
28.01.2011 20:44 10,9 C -1,1 C 0,0 UV-I 0,0 C 48 % 82 % 0 % 1021,4 hPa 0,0 l/m 0,0 km/h (0 Bft) 0 min 0 min 0,0 km/h (0 Bft)
28.01.2011 20:46 10,8 C -1,1 C 0,0 UV-I 0,0 C 48 % 82 % 0 % 1021,2 hPa 0,0 l/m 0,4 km/h (0 Bft) 0 min 0 min 3,5 km/h (1 Bft)
28.01.2011 20:48 10,9 C -1,1 C 0,0 UV-I 0,0 C 49 % 82 % 0 % 1021,2 hPa 0,0 l/m 0,4 km/h (0 Bft) 0 min 0 min 0,0 km/h (0 Bft)
28.01.2011 20:50 10,9 C -1,1 C 0,0 UV-I 0,0 C 49 % 82 % 0 % 1021,2 hPa 0,0 l/m 0,4 km/h (0 Bft) 0 min 0 min 0,0 km/h (0 Bft)
28.01.2011 20:52 10,9 C -1,1 C 0,0 UV-I 0,0 C 49 % 82 % 0 % 1021,2 hPa 0,0 l/m 0,4 km/h (0 Bft) 0 min 0 min 0,0 km/h (0 Bft)
28.01.2011 20:54 10,9 C -1,1 C 0,0 UV-I 0,0 C 49 % 82 % 0 % 1021,2 hPa 0,0 l/m 0,4 km/h (0 Bft) 0 min 0 min 0,0 km/h (0 Bft)
28.01.2011 20:56 10,8 C -1,1 C 0,0 UV-I 0,0 C 49 % 82 % 0 % 1021,2 hPa 0,0 l/m 0,8 km/h (0 Bft) 0 min 0 min 0,0 km/h (0 Bft)
28.01.2011 20:58 10,9 C -1,2 C 0,0 UV-I 0,0 C 49 % 82 % 0 % 1021,2 hPa 0,0 l/m 0,4 km/h (0 Bft) 0 min 0 min 0,0 km/h (0 Bft)
28.01.2011 21:00 10,9 C -1,2 C 0,0 UV-I 0,0 C 49 % 82 % 0 % 1021,2 hPa 0,0 l/m 0,0 km/h (0 Bft) 0 min 0 min 0,0 km/h (0 Bft)
28.01.2011 21:02 10,9 C -1,1 C 0,0 UV-I 0,0 C 49 % 83 % 0 % 1021,2 hPa 0,0 l/m 0,0 km/h (0 Bft) 0 min 0 min 0,0 km/h (0 Bft)
28.01.2011 21:04 10,8 C -1,1 C 0,0 UV-I 0,0 C 49 % 83 % 0 % 1021,2 hPa 0,0 l/m 0,4 km/h (0 Bft) 0 min 0 min 0,0 km/h (0 Bft)
28.01.2011 21:06 10,9 C -1,1 C 0,0 UV-I 0,0 C 49 % 83 % 0 % 1021,2 hPa 0,0 l/m 0,4 km/h (0 Bft) 0 min 0 min 0,0 km/h (0 Bft)
28.01.2011 21:08 10,9 C -1,2 C 0,0 UV-I 0,0 C 49 % 83 % 0 % 1021,2 hPa 0,0 l/m 0,8 km/h (0 Bft) 0 min 0 min 0,0 km/h (0 Bft)
28.01.2011 21:10 10,9 C -1,2 C 0,0 UV-I 0,0 C 49 % 83 % 0 % 1021,2 hPa 0,0 l/m 0,8 km/h (0 Bft) 0 min 0 min 0,0 km/h (0 Bft)
28.01.2011 21:12 10,8 C -1,1 C 0,0 UV-I 0,0 C 49 % 83 % 0 % 1021,2 hPa 0,0 l/m 1,2 km/h (1 Bft) 0 min 0 min 4,5 km/h (1 Bft)
28.01.2011 21:14 10,8 C -1,1 C 0,0 UV-I 0,0 C 49 % 83 % 0 % 1021,2 hPa 0,0 l/m 1,2 km/h (1 Bft) 0 min 0 min 3,5 km/h (1 Bft)
28.01.2011 21:16 10,8 C -1,3 C 0,0 UV-I 0,0 C 50 % 83 % 0 % 1021,2 hPa 0,0 l/m 1,2 km/h (1 Bft) 0 min 0 min 0,0 km/h (0 Bft)
28.01.2011 21:18 10,8 C -1,3 C 0,0 UV-I 0,0 C 49 % 83 % 0 % 1021,2 hPa 0,0 l/m 0,8 km/h (0 Bft) 0 min 0 min 6,8 km/h (2 Bft)
28.01.2011 21:20 10,8 C -1,3 C 0,0 UV-I 0,0 C 49 % 83 % 0 % 1021,2 hPa 0,0 l/m 1,2 km/h (1 Bft) 0 min 0 min 0,0 km/h (0 Bft)
28.01.2011 21:22 10,8 C -1,3 C 0,0 UV-I 0,0 C 50 % 83 % 0 % 1021,2 hPa 0,0 l/m 1,2 km/h (1 Bft) 0 min 0 min 0,0 km/h (0 Bft)
28.01.2011 21:24 10,8 C -1,3 C 0,0 UV-I 0,0 C 50 % 83 % 0 % 1021,2 hPa 0,0 l/m 0,8 km/h (0 Bft) 0 min 0 min 0,0 km/h (0 Bft)
28.01.2011 21:26 10,8 C -1,3 C 0,0 UV-I 0,0 C 50 % 83 % 0 % 1021,2 hPa 0,0 l/m 0,8 km/h (0 Bft) 0 min 0 min 0,0 km/h (0 Bft)
28.01.2011 21:28 10,8 C -1,3 C 0,0 UV-I 0,0 C 50 % 83 % 0 % 1021,2 hPa 0,0 l/m 0,4 km/h (0 Bft) 0 min 0 min 0,0 km/h (0 Bft)
28.01.2011 21:30 10,8 C -1,3 C 0,0 UV-I 0,0 C 50 % 83 % 0 % 1021,2 hPa 0,0 l/m 0,4 km/h (0 Bft) 0 min 0 min 3,9 km/h (1 Bft)
28.01.2011 21:32 10,8 C -1,3 C 0,0 UV-I 0,0 C 50 % 83 % 0 % 1021,2 hPa 0,0 l/m 0,4 km/h (0 Bft) 0 min 0 min 4,8 km/h (1 Bft)
28.01.2011 21:34 10,8 C -1,3 C 0,0 UV-I 0,0 C 50 % 84 % 0 % 1021,2 hPa 0,0 l/m 0,4 km/h (0 Bft) 0 min 0 min 3,9 km/h (1 Bft)
28.01.2011 21:36 10,8 C -1,3 C 0,0 UV-I 0,0 C 50 % 84 % 0 % 1021,2 hPa 0,0 l/m 0,4 km/h (0 Bft) 0 min 0 min 0,0 km/h (0 Bft)
28.01.2011 21:38 10,8 C -1,3 C 0,0 UV-I 0,0 C 50 % 84 % 0 % 1021,2 hPa 0,0 l/m 0,8 km/h (0 Bft) 0 min 0 min 4,8 km/h (1 Bft)
28.01.2011 21:40 10,8 C -1,3 C 0,0 UV-I 0,0 C 50 % 84 % 0 % 1021,2 hPa 0,0 l/m 1,2 km/h (1 Bft) 0 min 0 min 3,2 km/h (1 Bft)
28.01.2011 21:42 10,8 C -1,3 C 0,0 UV-I 0,0 C 50 % 84 % 0 % 1021,2 hPa 0,0 l/m 0,8 km/h (0 Bft) 0 min 0 min 7,1 km/h (2 Bft)
28.01.2011 21:44 10,8 C -1,3 C 0,0 UV-I 0,0 C 50 % 84 % 0 % 1021,2 hPa 0,0 l/m 1,2 km/h (1 Bft) 0 min 0 min 0,0 km/h (0 Bft)
28.01.2011 21:46 10,8 C -1,3 C 0,0 UV-I 0,0 C 50 % 84 % 0 % 1021,4 hPa 0,0 l/m 1,2 km/h (1 Bft) 0 min 0 min 3,5 km/h (1 Bft)
28.01.2011 21:48 10,8 C -1,3 C 0,0 UV-I 0,0 C 49 % 84 % 0 % 1021,4 hPa 0,0 l/m 1,2 km/h (1 Bft) 0 min 0 min 3,5 km/h (1 Bft)
28.01.2011 21:50 10,8 C -1,3 C 0,0 UV-I 0,0 C 50 % 84 % 0 % 1021,4 hPa 0,0 l/m 1,2 km/h (1 Bft) 0 min 0 min 0,0 km/h (0 Bft)
28.01.2011 21:52 10,8 C -1,3 C 0,0 UV-I 0,0 C 50 % 84 % 0 % 1021,4 hPa 0,0 l/m 0,8 km/h (0 Bft) 0 min 0 min 4,2 km/h (1 Bft)
28.01.2011 21:54 10,8 C -1,3 C 0,0 UV-I 0,0 C 50 % 84 % 0 % 1021,4 hPa 0,0 l/m 0,8 km/h (0 Bft) 0 min 0 min 3,2 km/h (1 Bft)
28.01.2011 21:56 10,8 C -1,3 C 0,0 UV-I 0,0 C 50 % 84 % 0 % 1021,4 hPa 0,0 l/m 0,8 km/h (0 Bft) 0 min 0 min 0,0 km/h (0 Bft)
28.01.2011 21:58 10,8 C -1,3 C 0,0 UV-I 0,0 C 50 % 84 % 0 % 1021,4 hPa 0,0 l/m 0,8 km/h (0 Bft) 0 min 0 min 0,0 km/h (0 Bft)
28.01.2011 22:00 10,8 C -1,4 C 0,0 UV-I 0,0 C 50 % 84 % 0 % 1021,4 hPa 0,0 l/m 0,4 km/h (0 Bft) 0 min 0 min 4,8 km/h (1 Bft)
28.01.2011 22:02 10,8 C -1,3 C 0,0 UV-I 0,0 C 50 % 85 % 0 % 1021,4 hPa 0,0 l/m 0,4 km/h (0 Bft) 0 min 0 min 0,0 km/h (0 Bft)
28.01.2011 22:04 10,8 C -1,3 C 0,0 UV-I 0,0 C 50 % 85 % 0 % 1021,4 hPa 0,0 l/m 0,8 km/h (0 Bft) 0 min 0 min 5,1 km/h (1 Bft)
28.01.2011 22:06 10,8 C -1,3 C 0,0 UV-I 0,0 C 50 % 85 % 0 % 1021,4 hPa 0,0 l/m 0,8 km/h (0 Bft) 0 min 0 min 0,0 km/h (0 Bft)
28.01.2011 22:08 10,8 C -1,3 C 0,0 UV-I 0,0 C 50 % 85 % 0 % 1021,4 hPa 0,0 l/m 0,8 km/h (0 Bft) 0 min 0 min 0,0 km/h (0 Bft)
28.01.2011 22:10 10,8 C -1,3 C 0,0 UV-I 0,0 C 50 % 85 % 0 % 1021,4 hPa 0,0 l/m 0,8 km/h (0 Bft) 0 min 0 min 0,0 km/h (0 Bft)
28.01.2011 22:12 10,8 C -1,3 C 0,0 UV-I 0,0 C 50 % 85 % 0 % 1021,4 hPa 0,0 l/m 0,8 km/h (0 Bft) 0 min 0 min 5,5 km/h (1 Bft)
28.01.2011 22:14 10,8 C -1,4 C 0,0 UV-I 0,0 C 50 % 84 % 0 % 1021,4 hPa 0,0 l/m 0,8 km/h (0 Bft) 0 min 0 min 0,0 km/h (0 Bft)
28.01.2011 22:16 10,8 C -1,4 C 0,0 UV-I 0,0 C 50 % 84 % 0 % 1021,4 hPa 0,0 l/m 0,4 km/h (0 Bft) 0 min 0 min 0,0 km/h (0 Bft)
28.01.2011 22:18 10,6 C -1,3 C 0,0 UV-I 0,0 C 50 % 85 % 0 % 1021,4 hPa 0,0 l/m 0,4 km/h (0 Bft) 0 min 0 min 0,0 km/h (0 Bft)
28.01.2011 22:20 10,8 C -1,3 C 0,0 UV-I 0,0 C 49 % 85 % 0 % 1021,4 hPa 0,0 l/m 0,4 km/h (0 Bft) 0 min 0 min 6,4 km/h (2 Bft)
28.01.2011 22:22 10,6 C -1,3 C 0,0 UV-I 0,0 C 49 % 85 % 0 % 1021,4 hPa 0,0 l/m 1,2 km/h (1 Bft) 0 min 0 min 3,2 km/h (1 Bft)
28.01.2011 22:24 10,6 C -1,3 C 0,0 UV-I 0,0 C 49 % 85 % 0 % 1021,4 hPa 0,0 l/m 0,8 km/h (0 Bft) 0 min 0 min 0,0 km/h (0 Bft)
28.01.2011 22:26 10,6 C -1,3 C 0,0 UV-I 0,0 C 49 % 85 % 0 % 1021,4 hPa 0,0 l/m 0,8 km/h (0 Bft) 0 min 0 min 0,0 km/h (0 Bft)
28.01.2011 22:28 10,6 C -1,3 C 0,0 UV-I 0,0 C 49 % 85 % 0 % 1021,4 hPa 0,0 l/m 0,8 km/h (0 Bft) 0 min 0 min 0,0 km/h (0 Bft)
28.01.2011 22:30 10,6 C -1,5 C 0,0 UV-I 0,0 C 49 % 85 % 0 % 1021,4 hPa 0,0 l/m 1,2 km/h (1 Bft) 0 min 0 min 0,0 km/h (0 Bft)
28.01.2011 22:32 10,7 C -1,5 C 0,0 UV-I 0,0 C 49 % 85 % 0 % 1021,4 hPa 0,0 l/m 0,8 km/h (0 Bft) 0 min 0 min 0,0 km/h (0 Bft)
28.01.2011 22:34 10,6 C -1,5 C 0,0 UV-I 0,0 C 49 % 85 % 0 % 1021,4 hPa 0,0 l/m 0,4 km/h (0 Bft) 0 min 0 min 0,0 km/h (0 Bft)
28.01.2011 22:36 10,7 C -1,5 C 0,0 UV-I 0,0 C 49 % 85 % 0 % 1021,4 hPa 0,0 l/m 0,8 km/h (0 Bft) 0 min 0 min 4,2 km/h (1 Bft)
28.01.2011 22:38 10,7 C -1,5 C 0,0 UV-I 0,0 C 49 % 85 % 0 % 1021,4 hPa 0,0 l/m 0,8 km/h (0 Bft) 0 min 0 min 0,0 km/h (0 Bft)
28.01.2011 22:40 10,7 C -1,5 C 0,0 UV-I 0,0 C 49 % 85 % 0 % 1021,4 hPa 0,0 l/m 0,8 km/h (0 Bft) 0 min 0 min 0,0 km/h (0 Bft)
28.01.2011 22:42 10,7 C -1,6 C 0,0 UV-I 0,0 C 49 % 85 % 0 % 1021,4 hPa 0,0 l/m 0,4 km/h (0 Bft) 0 min 0 min 0,0 km/h (0 Bft)
28.01.2011 22:44 10,7 C -1,6 C 0,0 UV-I 0,0 C 50 % 85 % 0 % 1021,4 hPa 0,0 l/m 0,4 km/h (0 Bft) 0 min 0 min 0,0 km/h (0 Bft)
28.01.2011 22:46 10,7 C -1,6 C 0,0 UV-I 0,0 C 49 % 85 % 0 % 1021,2 hPa 0,0 l/m 0,4 km/h (0 Bft) 0 min 0 min 0,0 km/h (0 Bft)
28.01.2011 22:48 10,7 C -1,6 C 0,0 UV-I 0,0 C 49 % 85 % 0 % 1021,2 hPa 0,0 l/m 0,0 km/h (0 Bft) 0 min 0 min 0,0 km/h (0 Bft)
28.01.2011 22:50 10,7 C -1,6 C 0,0 UV-I 0,0 C 49 % 85 % 0 % 1021,2 hPa 0,0 l/m 0,0 km/h (0 Bft) 0 min 0 min 0,0 km/h (0 Bft)
28.01.2011 22:52 10,7 C -1,5 C 0,0 UV-I 0,0 C 49 % 85 % 0 % 1021,2 hPa 0,0 l/m 0,0 km/h (0 Bft) 0 min 0 min 0,0 km/h (0 Bft)
28.01.2011 22:54 10,7 C -1,7 C 0,0 UV-I 0,0 C 49 % 85 % 0 % 1021,2 hPa 0,0 l/m 0,0 km/h (0 Bft) 0 min 0 min 0,0 km/h (0 Bft)
28.01.2011 22:56 10,7 C -1,7 C 0,0 UV-I 0,0 C 49 % 85 % 0 % 1021,2 hPa 0,0 l/m 0,0 km/h (0 Bft) 0 min 0 min 0,0 km/h (0 Bft)
28.01.2011 22:58 10,7 C -1,7 C 0,0 UV-I 0,0 C 49 % 85 % 0 % 1021,2 hPa 0,0 l/m 0,0 km/h (0 Bft) 0 min 0 min 0,0 km/h (0 Bft)
28.01.2011 23:00 10,7 C -1,7 C 0,0 UV-I 0,0 C 49 % 85 % 0 % 1021,2 hPa 0,0 l/m 0,4 km/h (0 Bft) 0 min 0 min 3,9 km/h (1 Bft)
28.01.2011 23:02 10,6 C -1,7 C 0,0 UV-I 0,0 C 49 % 85 % 0 % 1021,2 hPa 0,0 l/m 0,4 km/h (0 Bft) 0 min 0 min 0,0 km/h (0 Bft)
28.01.2011 23:04 10,6 C -1,7 C 0,0 UV-I 0,0 C 49 % 85 % 0 % 1021,2 hPa 0,0 l/m 0,4 km/h (0 Bft) 0 min 0 min 0,0 km/h (0 Bft)
28.01.2011 23:06 10,7 C -1,7 C 0,0 UV-I 0,0 C 50 % 85 % 0 % 1021,2 hPa 0,0 l/m 0,4 km/h (0 Bft) 0 min 0 min 0,0 km/h (0 Bft)
28.01.2011 23:08 10,6 C -1,7 C 0,0 UV-I 0,0 C 49 % 85 % 0 % 1021,2 hPa 0,0 l/m 0,4 km/h (0 Bft) 0 min 0 min 0,0 km/h (0 Bft)
28.01.2011 23:10 10,6 C -1,7 C 0,0 UV-I 0,0 C 49 % 85 % 0 % 1021,2 hPa 0,0 l/m 0,4 km/h (0 Bft) 0 min 0 min 0,0 km/h (0 Bft)
28.01.2011 23:12 10,6 C -1,7 C 0,0 UV-I 0,0 C 49 % 85 % 0 % 1021,2 hPa 0,0 l/m 0,0 km/h (0 Bft) 0 min 0 min 0,0 km/h (0 Bft)
28.01.2011 23:14 10,7 C -1,7 C 0,0 UV-I 0,0 C 49 % 85 % 0 % 1021,2 hPa 0,0 l/m 0,4 km/h (0 Bft) 0 min 0 min 0,0 km/h (0 Bft)
28.01.2011 23:16 10,6 C -1,7 C 0,0 UV-I 0,0 C 49 % 85 % 0 % 1021,2 hPa 0,0 l/m 0,4 km/h (0 Bft) 0 min 0 min 0,0 km/h (0 Bft)
28.01.2011 23:18 10,6 C -1,7 C 0,0 UV-I 0,0 C 49 % 85 % 0 % 1021,2 hPa 0,0 l/m 0,4 km/h (0 Bft) 0 min 0 min 0,0 km/h (0 Bft)
28.01.2011 23:20 10,6 C -1,7 C 0,0 UV-I 0,0 C 49 % 85 % 0 % 1021,2 hPa 0,0 l/m 0,4 km/h (0 Bft) 0 min 0 min 0,0 km/h (0 Bft)
28.01.2011 23:22 10,6 C -1,7 C 0,0 UV-I 0,0 C 49 % 85 % 0 % 1021,2 hPa 0,0 l/m 0,4 km/h (0 Bft) 0 min 0 min 0,0 km/h (0 Bft)
28.01.2011 23:24 10,6 C -1,7 C 0,0 UV-I 0,0 C 49 % 85 % 0 % 1021,2 hPa 0,0 l/m 0,4 km/h (0 Bft) 0 min 0 min 0,0 km/h (0 Bft)
28.01.2011 23:26 10,6 C -1,7 C 0,0 UV-I 0,0 C 49 % 85 % 0 % 1021,2 hPa 0,0 l/m 0,4 km/h (0 Bft) 0 min 0 min 5,5 km/h (1 Bft)
28.01.2011 23:28 10,6 C -1,7 C 0,0 UV-I 0,0 C 49 % 85 % 0 % 1021,2 hPa 0,0 l/m 0,4 km/h (0 Bft) 0 min 0 min 0,0 km/h (0 Bft)
28.01.2011 23:30 10,6 C -1,7 C 0,0 UV-I 0,0 C 49 % 85 % 0 % 1021,2 hPa 0,0 l/m 0,4 km/h (0 Bft) 0 min 0 min 0,0 km/h (0 Bft)
28.01.2011 23:32 10,6 C -1,7 C 0,0 UV-I 0,0 C 49 % 86 % 0 % 1021,2 hPa 0,0 l/m 0,4 km/h (0 Bft) 0 min 0 min 0,0 km/h (0 Bft)
28.01.2011 23:34 10,6 C -1,7 C 0,0 UV-I 0,0 C 49 % 86 % 0 % 1021,2 hPa 0,0 l/m 0,4 km/h (0 Bft) 0 min 0 min 0,0 km/h (0 Bft)
28.01.2011 23:36 10,6 C -1,7 C 0,0 UV-I 0,0 C 49 % 86 % 0 % 1021,2 hPa 0,0 l/m 0,8 km/h (0 Bft) 0 min 0 min 3,9 km/h (1 Bft)
28.01.2011 23:38 10,6 C -1,7 C 0,0 UV-I 0,0 C 49 % 86 % 0 % 1021,2 hPa 0,0 l/m 0,4 km/h (0 Bft) 0 min 0 min 0,0 km/h (0 Bft)
28.01.2011 23:40 10,6 C -1,8 C 0,0 UV-I 0,0 C 50 % 86 % 0 % 1021,2 hPa 0,0 l/m 0,8 km/h (0 Bft) 0 min 0 min 5,1 km/h (1 Bft)
28.01.2011 23:42 10,6 C -1,7 C 0,0 UV-I 0,0 C 49 % 86 % 0 % 1021,2 hPa 0,0 l/m 0,8 km/h (0 Bft) 0 min 0 min 0,0 km/h (0 Bft)
28.01.2011 23:44 10,6 C -1,8 C 0,0 UV-I 0,0 C 50 % 86 % 0 % 1021,2 hPa 0,0 l/m 0,8 km/h (0 Bft) 0 min 0 min 0,0 km/h (0 Bft)
28.01.2011 23:46 10,6 C -1,7 C 0,0 UV-I 0,0 C 50 % 86 % 0 % 1021,2 hPa 0,0 l/m 0,8 km/h (0 Bft) 0 min 0 min 4,5 km/h (1 Bft)
28.01.2011 23:48 10,6 C -1,7 C 0,0 UV-I 0,0 C 49 % 86 % 0 % 1021,2 hPa 0,0 l/m 1,2 km/h (1 Bft) 0 min 0 min 0,0 km/h (0 Bft)
28.01.2011 23:50 10,6 C -1,7 C 0,0 UV-I 0,0 C 49 % 86 % 0 % 1021,2 hPa 0,0 l/m 1,6 km/h (1 Bft) 0 min 0 min 4,8 km/h (1 Bft)
28.01.2011 23:52 10,6 C -1,8 C 0,0 UV-I 0,0 C 49 % 86 % 0 % 1021,2 hPa 0,0 l/m 1,2 km/h (1 Bft) 0 min 0 min 4,8 km/h (1 Bft)
28.01.2011 23:54 10,6 C -1,8 C 0,0 UV-I 0,0 C 49 % 86 % 0 % 1021,2 hPa 0,0 l/m 1,6 km/h (1 Bft) 0 min 0 min 3,2 km/h (1 Bft)
28.01.2011 23:56 10,6 C -1,8 C 0,0 UV-I 0,0 C 49 % 86 % 0 % 1021,2 hPa 0,0 l/m 1,2 km/h (1 Bft) 0 min 0 min 0,0 km/h (0 Bft)
28.01.2011 23:58 10,6 C -1,7 C 0,0 UV-I 0,0 C 49 % 86 % 0 % 1021,2 hPa 0,0 l/m 0,8 km/h (0 Bft) 0 min 0 min 0,0 km/h (0 Bft)
_ Min-Zeit 08:14 08:02 00:00 00:00 16:26 14:04 00:00 18:46 - 02:54 - - 00:22
Minimum _ 10,2 C -3,3 C 0,0 UV-I 0,0 C 40 % 65 % 0 % 1021,2 hPa - 0,0 km/h (0 Bft) - - 0,0 km/h (0 Bft)
_ Max-Zeit 15:40 14:30 13:16 12:28 21:16 23:32 10:06 15:26 00:00 14:22 10:00 00:00 14:34
Maximum _ 14,4 C 2,9 C 1,5 UV-I 6,8 C 50 % 86 % 100 % 1024,2 hPa 0,0 l/m 8,4 km/h
O (2 Bft)
2 min 0 min 24,5 km/h
O-SO (4 Bft)
Durchschnitt _ 11,2 C -0,8 C 0,2 UV-I 1,4 C 45 % 78 % 25 % 1022,3 hPa #0,0 l/m 3,0 km/h (1 Bft) #5:58 h #0 min. 3,5 km/h (1 Bft)
© 2012 W. Hausmann